[{"header": {"dx": 0.06612293990616946, "dy": 0.0552356325346848, "nx": 98, "ny": 59, "la1": 35.046912555036876, "la2": 31.78801023549047, "lo1": -121.43107172385933, "lo2": -114.95102361305473, "refTime": "2026040713", "parameterCategory": 1, "parameterNumber": 2}, "data": [6.56, 6.56, 6.31, 6.31, 5.67, 5.26, 5.06, 4.44, 4.03, 3.4, 3.45, 2.82, 1.2, 0.8, 0.6, 0.57, -0.54, -3.14, -4.15, -4.85, -5.81, -5.29, -4.09, -3.78, -3.48, -2.51, -2.53, -2.5, -2.4, -2.0, -1.7, -1.2, -0.89, 0.0, 0.0, 0.89, 1.79, 1.34, 0.45, -0.0, 0.4, 1.7, 3.13, 4.15, 8.4, 10.87, 13.14, 13.51, 13.49, 10.86, 2.8, -0.0, 0.99, 1.88, 2.07, 2.73, 3.72, 5.09, 5.69, 5.6, 3.82, 1.2, -1.26, -0.89, 0.63, 2.15, 3.07, 4.73, 6.79, 8.67, 9.11, 8.01, 6.26, 4.47, 4.02, 5.31, 6.66, 4.47, 1.34, -1.79, -2.17, -2.17, -2.24, -2.24, -1.6, -0.4, 0.0, 0.6, 2.4, 4.0, 6.7, 6.68, 5.94, 5.94, 5.69, 4.11, 3.16, 1.4, 6.56, 6.56, 6.31, 6.31, 5.89, 5.92, 5.29, 4.66, 4.44, 4.05, 3.42, 2.07, 1.88, 1.24, 0.0, 1.26, 1.0, -0.85, -3.45, -4.52, -6.45, -6.71, -4.85, -3.83, -3.16, -2.51, -2.53, -2.86, -3.07, -3.13, -2.6, -2.12, -1.6, -0.6, -0.0, 1.26, 2.24, 2.24, 1.2, 0.45, 0.89, 2.6, 4.98, 7.68, 9.85, 12.09, 12.72, 12.72, 11.76, 3.16, -0.0, 0.54, 1.88, 2.51, 2.73, 2.98, 4.01, 5.09, 6.07, 6.54, 6.36, 3.07, 0.89, -0.0, 1.24, 2.5, 3.45, 4.4, 5.86, 8.19, 8.91, 7.92, 5.81, 4.02, 3.58, 4.02, 8.01, 4.47, 1.34, -1.79, -2.17, -2.17, -2.24, -2.24, -1.6, -0.4, 0.0, 0.6, 2.4, 4.0, 6.7, 6.68, 5.94, 5.94, 5.69, 4.11, 3.16, 1.4, 6.31, 6.29, 6.06, 6.31, 5.89, 5.67, 5.69, 5.06, 4.66, 4.03, 4.05, 3.42, 2.07, 1.49, 0.95, 1.2, 1.9, 1.4, -1.0, -3.22, -4.27, -6.99, -7.31, -5.36, -3.74, -3.14, -2.51, -2.53, -2.91, -3.13, -3.53, -3.58, -3.07, -2.23, -0.0, 1.58, 2.91, 3.58, 3.39, 2.91, 2.79, 5.69, 8.37, 10.43, 10.87, 11.91, 12.02, 10.8, 3.38, -0.0, -0.0, 1.16, 1.84, 2.73, 2.44, 2.98, 3.72, 5.09, 6.44, 6.94, 7.06, 5.86, 3.74, 2.86, 2.84, 3.49, 4.12, 5.46, 6.44, 7.28, 9.08, 8.91, 7.11, 3.97, 3.39, 3.97, 8.05, 6.26, 0.63, -2.24, -1.79, -1.34, -1.2, -1.86, -2.4, -2.0, -1.2, 0.0, 2.21, 5.69, 8.67, 7.64, 6.58, 5.94, 3.48, 2.68, 2.6, 2.4, 6.31, 6.06, 6.06, 6.06, 5.89, 5.89, 5.67, 5.26, 4.63, 4.44, 4.03, 3.4, 1.8, 1.16, 0.8, 1.58, 2.21, 2.86, 1.88, -1.24, -3.6, -4.15, -7.74, -7.98, -6.22, -3.95, -3.07, -1.88, -1.58, -2.68, -3.6, -4.52, -4.73, -3.07, 0.45, 1.79, 3.13, 3.95, 6.0, 6.39, 7.82, 10.15, 10.47, 10.21, 9.42, 9.39, 8.56, 3.55, 0.4, -0.0, 1.27, 2.07, 2.3, 2.4, 2.88, 3.64, 4.43, 5.09, 6.64, 7.47, 7.28, 5.86, 4.46, 3.48, 3.64, 4.74, 5.43, 6.01, 6.95, 8.24, 9.9, 10.15, 8.19, 3.58, 2.53, 3.16, 6.54, 9.58, 1.26, -3.07, -2.17, -1.2, -1.86, -3.07, -3.82, -2.63, -0.63, 0.57, 3.16, 7.68, 9.3, 7.68, 4.65, 2.21, 0.89, 1.49, 3.13, 3.58, 5.89, 5.64, 5.64, 5.64, 5.64, 5.89, 5.67, 5.26, 5.04, 4.63, 4.0, 3.37, 1.41, 1.16, 1.6, 2.41, 2.15, 2.53, 2.21, 0.0, -4.15, -6.64, -4.47, -7.08, -7.01, -6.64, -3.58, -2.24, -0.89, -0.89, -1.9, -3.48, -5.94, -4.46, 0.0, 1.7, 2.99, 6.32, 8.46, 9.12, 9.54, 9.49, 8.53, 7.32, 7.6, 8.14, 6.54, 3.58, 2.84, 2.79, 2.79, 3.07, 2.48, 2.2, 3.38, 4.43, 4.81, 5.46, 6.7, 8.14, 7.71, 5.34, 3.79, 3.9, 5.3, 6.01, 5.37, 4.65, 5.94, 7.59, 10.28, 11.34, 10.0, 6.64, 3.13, 1.8, 3.38, 6.07, 3.39, -2.4, -2.68, -2.5, -3.6, -4.52, -4.0, -2.21, 0.0, 2.51, 6.01, 8.3, 8.3, 5.09, 1.61, -1.2, -0.57, 2.68, 4.43, 4.3, 5.89, 5.89, 5.64, 5.64, 5.64, 5.64, 5.89, 5.67, 5.26, 4.63, 4.2, 3.56, 1.27, 0.76, 1.8, 2.07, 2.07, 2.41, 3.22, 0.0, -4.46, -8.24, -7.81, -6.88, -5.51, -6.0, -4.22, -2.15, -0.65, 0.0, 0.95, 0.0, -1.27, -3.02, -0.71, 0.7, 2.25, 5.99, 9.12, 8.5, 6.0, 4.18, 3.16, 6.22, 10.28, 11.6, 10.7, 7.6, 4.24, 3.14, 3.14, 3.16, 3.07, 2.73, 3.48, 4.46, 4.73, 4.73, 6.64, 9.33, 8.19, 4.46, 4.11, 5.06, 5.37, 6.39, 5.72, 4.43, 4.43, 6.7, 9.49, 10.01, 9.84, 9.84, 7.98, 3.58, 1.8, 1.84, 2.17, -0.6, -2.53, -3.16, -4.12, -4.46, -2.73, -0.67, 0.71, 3.8, 6.14, 6.24, 5.37, 4.43, 0.0, -2.91, -0.45, 3.39, 5.44, 5.44, 5.89, 5.89, 5.64, 5.64, 5.86, 5.86, 5.64, 5.89, 5.23, 4.6, 4.63, 3.35, 1.41, 1.2, 2.48, 2.41, 2.3, 3.22, 4.46, 3.47, -0.51, -4.09, -6.98, -7.27, -5.2, -3.99, -4.2, -3.14, -2.09, -1.27, 0.0, 0.89, 1.2, 0.57, 0.0, 0.0, 0.75, 4.28, 7.68, 5.18, 3.11, 1.04, 3.25, 6.45, 10.82, 11.44, 10.75, 7.56, 3.97, 4.4, 3.93, 3.16, 3.43, 3.15, 3.48, 3.84, 4.46, 4.66, 6.36, 8.67, 7.71, 4.93, 4.09, 3.49, 2.79, 4.11, 5.72, 4.09, 3.6, 5.64, 8.36, 8.36, 7.76, 9.72, 9.81, 7.15, 4.02, 2.24, 2.63, 3.13, -1.27, -2.2, -2.9, -2.82, -1.47, 0.71, 2.19, 3.02, 3.7, 3.69, 4.22, 1.94, -2.68, -3.58, 0.0, 3.16, 6.64, 5.69, 5.64, 5.64, 5.64, 5.64, 5.86, 5.86, 5.86, 5.64, 5.23, 5.02, 4.12, 3.49, 1.6, 1.6, 4.11, 3.48, 3.72, 4.43, 5.06, 4.74, 3.58, 3.07, 1.2, -1.88, -4.6, -3.11, -2.02, -3.08, -5.21, -4.22, -2.41, -0.76, 0.76, 1.66, 2.69, 1.42, 0.68, 2.34, 5.43, 5.15, 1.49, 0.96, 3.18, 4.43, 4.0, 2.84, 4.0, 4.47, 4.73, 4.98, 3.14, 3.16, 3.43, 3.72, 4.11, 4.46, 5.09, 5.6, 6.79, 7.45, 7.28, 4.73, 3.39, 1.9, 0.7, 2.51, 5.05, 4.3, 3.58, 4.47, 7.15, 7.6, 8.91, 10.49, 10.49, 8.02, 6.11, 5.6, 6.79, 7.56, 3.16, -0.65, -1.36, -0.65, 0.0, 2.06, 2.82, 1.49, 1.35, 1.94, 1.19, -2.23, -4.47, -2.91, 0.0, 3.15, 6.08, 5.46, 5.64, 5.64, 5.64, 5.64, 5.86, 5.86, 5.86, 5.86, 5.64, 5.0, 4.76, 3.39, 2.28, 2.35, 3.2, 3.11, 4.16, 4.65, 4.81, 3.83, 3.58, 5.26, 4.73, 2.91, -0.57, -1.66, -1.99, -5.2, -7.9, -5.2, -2.04, 0.0, 0.0, 2.16, 2.31, 2.17, 2.02, 2.02, 1.41, 0.95, 0.89, 2.12, 2.86, 1.26, -0.45, -0.95, 0.45, 2.24, 3.45, 2.79, 3.91, 2.73, 3.72, 4.43, 5.09, 6.07, 6.64, 7.47, 7.71, 7.45, 7.45, 4.87, 1.7, -0.0, -0.0, 2.51, 5.44, 5.16, 3.58, 3.53, 4.87, 8.47, 10.96, 11.28, 9.15, 5.77, 4.47, 7.12, 9.81, 10.71, 5.81, 0.0, -0.59, 0.0, 0.63, 2.06, 1.93, 0.59, 0.0, -1.24, -2.79, -4.3, -3.7, -1.88, 0.61, 3.15, 6.08, 5.09, 5.64, 5.64, 5.64, 5.64, 5.86, 5.86, 5.86, 5.86, 5.86, 5.4, 5.17, 5.17, 4.54, 2.82, 1.63, 2.49, 4.01, 4.17, 3.39, 3.3, 3.2, 2.41, 3.22, 3.32, 1.9, 0.0, -2.15, -3.91, -6.71, -3.21, 0.0, 1.07, 0.0, 0.0, 0.0, 0.99, 3.17, 1.88, 0.0, 0.71, 1.58, 2.24, 2.24, 0.6, -0.0, -0.6, -0.0, -0.0, 0.61, 0.63, 1.27, 2.79, 4.12, 5.09, 6.07, 6.7, 8.0, 8.4, 8.63, 8.36, 8.46, 5.81, 2.12, -0.0, 0.59, 2.79, 5.2, 5.86, 3.98, 3.53, 4.73, 9.62, 11.75, 10.98, 8.39, 6.67, 5.44, 7.28, 9.15, 11.09, 11.18, 5.2, 0.0, 0.57, 1.27, 1.8, 2.51, 2.4, -0.0, -1.79, -3.53, -3.2, -2.51, -1.13, 1.13, 3.15, 5.06, 4.11, 5.64, 5.64, 5.86, 5.86, 5.86, 5.86, 5.86, 5.86, 5.83, 5.83, 5.83, 6.25, 6.27, 5.17, 3.25, 2.99, 4.0, 3.58, 3.01, 2.33, 1.51, 0.75, 0.7, 1.33, 0.8, 0.0, -1.26, -1.58, -1.33, -0.89, 0.0, 0.0, -0.89, -0.45, 0.0, 0.96, 1.66, 0.89, -0.0, 2.12, 2.6, 2.24, 1.79, 0.45, 0.45, -0.63, -0.0, -0.0, -0.0, -0.0, 0.65, 2.68, 4.3, 5.44, 6.64, 7.32, 8.8, 9.4, 8.91, 8.49, 8.05, 5.36, 2.53, -0.0, 0.66, 3.48, 6.07, 6.25, 4.73, 4.02, 6.55, 9.46, 10.37, 9.15, 8.24, 8.67, 7.2, 6.08, 8.3, 10.4, 11.58, 9.62, 4.11, 1.88, 2.4, 3.09, 3.98, 4.02, 3.58, 1.79, -0.6, -1.61, -1.16, 0.0, 1.11, 3.43, 3.79, 2.86, 5.86, 5.86, 5.86, 5.86, 5.86, 5.86, 5.86, 5.83, 5.83, 6.5, 6.25, 6.46, 6.9, 7.19, 6.71, 6.33, 5.67, 5.17, 3.93, 2.3, 0.57, -0.53, -1.6, -2.23, -2.24, -2.24, -1.79, -1.58, -1.26, -2.12, -2.23, -1.79, -1.86, -1.26, 0.0, 0.57, 0.0, -0.45, 0.0, 0.89, 1.34, 0.45, 0.45, 0.45, 0.45, 0.45, 0.0, 0.45, -0.0, -0.0, 0.63, 1.86, 3.09, 4.02, 4.73, 6.28, 8.19, 9.28, 8.94, 7.12, 4.92, 3.82, 1.33, -0.0, 0.59, 3.16, 6.06, 7.33, 6.64, 6.11, 7.15, 8.46, 7.48, 5.64, 5.86, 8.4, 8.14, 6.39, 7.94, 9.84, 9.92, 8.55, 6.36, 2.5, 2.63, 3.58, 4.43, 4.88, 4.88, 4.43, 2.91, 1.24, 0.0, 0.65, 2.23, 3.15, 2.51, 0.65, 5.86, 5.86, 5.86, 5.86, 5.86, 5.86, 6.08, 6.27, 6.27, 6.5, 6.46, 6.9, 7.13, 7.83, 8.24, 8.53, 7.59, 6.67, 5.72, 4.42, 3.2, 1.6, 0.0, -2.17, -3.58, -4.02, -4.3, -4.8, -5.6, -6.16, -4.02, -2.68, -2.6, -1.7, -0.89, -1.2, -1.79, -1.79, -1.34, -1.2, -1.2, -0.63, -0.0, -0.0, 0.0, 0.0, 0.0, 0.0, 0.0, 0.0, 0.0, 0.55, 1.94, 2.44, 2.68, 4.54, 4.15, 7.15, 7.56, 3.53, 0.6, 0.54, -0.0, -0.0, 0.6, 1.9, 3.16, 5.09, 6.54, 6.36, 6.36, 6.07, 5.32, 4.92, 6.55, 8.67, 8.63, 7.06, 7.61, 7.94, 6.01, 5.72, 7.54, 6.7, 3.39, 3.98, 5.2, 5.2, 4.77, 4.88, 4.88, 3.82, 2.6, 1.9, 3.14, 2.79, 0.8, -0.8, 5.86, 5.86, 5.86, 5.86, 5.86, 6.29, 6.27, 6.27, 6.5, 6.5, 6.9, 6.9, 7.55, 8.2, 8.86, 9.19, 8.82, 8.15, 7.51, 7.17, 7.44, 6.8, 4.66, 2.0, 0.0, -2.6, -4.02, -4.8, -5.57, -6.16, -6.26, -3.58, -2.68, -1.79, -1.34, -1.79, -2.24, -2.24, -2.6, -2.91, -2.4, -1.7, -0.45, 0.0, 0.45, 0.63, 1.16, 0.0, 0.0, 0.0, 0.0, 1.02, 3.14, 3.29, 2.1, 1.36, 0.89, 3.16, 4.66, 0.89, -2.4, -0.6, 0.45, 0.0, 0.0, 0.0, 1.34, 3.13, 3.47, 3.72, 3.43, 4.27, 5.2, 6.26, 7.76, 9.08, 6.94, 4.66, 5.09, 4.46, 2.79, 4.56, 7.94, 8.24, 4.41, 5.09, 6.54, 4.52, 4.3, 4.44, 5.36, 4.88, 3.82, 3.32, 3.2, 2.4, 0.0, -0.8, 5.86, 5.86, 5.86, 5.86, 6.29, 6.53, 6.27, 6.27, 6.5, 6.92, 6.9, 7.55, 7.55, 8.2, 8.86, 9.5, 9.77, 9.08, 8.73, 8.38, 9.21, 9.48, 9.01, 7.51, 4.4, 1.24, -0.63, -1.79, -3.09, -4.44, -4.89, -4.92, -2.68, -1.79, -1.34, -1.34, -0.89, -1.34, -2.0, -2.68, -2.5, -1.6, -0.45, 0.0, -0.0, -0.0, 0.45, 1.58, 0.76, 0.0, 0.0, 2.17, 1.98, 0.76, 0.0, 0.0, 0.0, 1.88, 3.16, 0.45, -1.79, -0.89, 0.0, 0.0, 0.0, 0.0, 0.73, 0.65, -0.8, -0.0, 1.61, 4.3, 5.36, 7.01, 7.98, 5.2, 3.13, 1.79, 2.4, 2.4, 2.5, 2.84, 5.72, 6.9, 4.75, 5.21, 5.09, 4.0, 3.53, 3.98, 5.32, 5.67, 4.73, 3.82, 3.53, 1.26, 0.0, 0.0, 5.86, 5.86, 5.86, 6.29, 6.29, 6.27, 6.27, 6.27, 6.5, 7.16, 6.9, 7.55, 7.95, 8.2, 9.5, 9.84, 10.12, 9.77, 9.42, 9.37, 9.86, 10.3, 10.4, 9.51, 8.0, 5.88, 4.3, 2.63, 1.34, 0.45, -1.6, -2.68, -3.58, -1.79, -0.89, -0.45, -0.45, -1.26, -1.74, -3.16, -2.15, -0.95, -0.0, -0.0, -1.58, -1.0, -1.0, 0.45, 0.45, 0.63, 1.24, 1.58, 0.89, -0.0, -0.0, 0.45, 1.49, 2.15, 1.6, 0.45, 0.0, 0.0, 0.0, 0.63, 0.0, 0.0, -1.45, -3.32, -2.86, -0.0, 2.17, 4.43, 5.64, 7.28, 4.77, 1.6, -0.57, -0.8, -0.63, -0.0, 0.89, 2.17, 3.32, 5.16, 4.24, 2.6, 2.53, 2.17, 2.6, 3.53, 5.2, 4.52, 3.6, 4.3, 4.3, 2.5, 0.54, 0.54, 5.86, 5.86, 5.86, 6.29, 6.53, 6.27, 6.27, 6.5, 6.92, 7.16, 7.16, 7.55, 7.95, 8.58, 8.86, 9.5, 9.82, 9.8, 10.06, 10.01, 10.41, 10.68, 10.8, 10.0, 9.11, 8.86, 8.42, 7.51, 6.23, 4.88, 3.07, 1.34, 0.45, -0.89, -0.45, -0.6, -1.24, -1.9, -2.21, -1.9, -1.6, -1.34, -0.95, -1.2, -1.58, -1.58, -1.58, -1.26, -0.0, -0.0, -0.0, -0.0, -0.0, 0.45, 0.0, 0.0, 0.89, 0.89, 0.63, 0.45, 0.0, 0.45, -0.0, -0.0, 0.45, 0.53, -1.33, -3.74, -2.6, 0.0, 3.32, 4.37, 5.6, 4.52, 0.45, -2.4, -2.91, -2.4, -2.4, -1.26, -0.0, 1.79, 3.09, 4.3, 4.24, 3.07, 1.34, 1.79, 2.91, 4.93, 7.06, 4.52, 3.35, 4.27, 5.05, 3.14, 1.2, 1.2, 5.86, 5.86, 5.86, 6.29, 6.53, 6.27, 6.27, 6.92, 6.92, 7.16, 7.57, 7.55, 7.95, 8.49, 8.86, 9.21, 9.82, 10.4, 10.36, 10.51, 10.68, 11.08, 10.4, 10.34, 10.22, 10.71, 10.6, 10.13, 8.79, 7.69, 6.04, 4.6, 2.8, 0.95, -0.0, -0.57, -2.5, -3.04, -2.68, -2.24, -1.79, -2.24, -2.24, -1.34, -1.79, -1.34, -0.89, -1.34, -1.26, -1.26, -0.0, -0.0, -0.0, 0.45, 0.0, 0.0, 0.89, 1.34, 1.34, 1.34, 1.34, -0.0, -0.0, -1.0, -1.2, -0.0, 0.63, 0.0, -0.96, 0.0, 1.55, 2.44, 2.51, 0.57, -2.24, -3.53, -3.58, -3.13, -2.24, -0.89, 0.45, 2.12, 3.39, 4.66, 3.14, 2.53, 3.16, 2.63, 3.14, 4.75, 6.0, 4.52, 3.72, 4.41, 4.73, 3.14, 1.2, 1.2, 5.86, 5.86, 5.86, 6.53, 6.27, 6.27, 6.27, 6.92, 6.92, 6.92, 7.57, 7.83, 8.22, 8.22, 8.22, 8.66, 9.21, 10.12, 9.72, 10.3, 11.6, 12.11, 10.68, 8.55, 8.19, 10.04, 8.96, 7.89, 6.94, 7.08, 6.67, 5.21, 4.0, 2.15, 0.45, -1.9, -3.6, -4.92, -3.53, -3.04, -2.4, -2.6, -2.24, -1.79, -1.34, -0.89, -0.89, -1.34, -1.26, -1.26, -0.0, -0.0, -0.0, -0.0, -0.0, 0.89, 0.89, 1.34, 1.34, 1.34, 1.34, -0.0, -0.0, -0.71, -1.2, -1.26, 0.45, 3.14, 2.6, 0.0, 0.0, 2.21, 4.43, 4.47, 2.24, 0.45, -2.68, -3.39, -2.5, -1.24, 1.88, 3.14, 3.78, 3.79, 3.48, 3.43, 4.36, 4.07, 5.3, 3.78, 3.48, 4.66, 5.09, 4.43, 4.12, 3.16, 1.84, 1.84, 5.62, 5.86, 5.86, 6.27, 6.27, 6.27, 6.27, 6.92, 6.92, 6.92, 7.57, 7.57, 8.22, 8.22, 8.86, 8.87, 9.21, 8.24, 6.79, 7.64, 10.53, 12.16, 11.16, 8.93, 8.27, 8.3, 7.06, 6.87, 6.23, 5.65, 5.35, 4.71, 4.07, 2.23, 0.6, -1.7, -3.39, -4.47, -4.89, -4.77, -4.34, -3.98, -3.58, -3.58, -3.13, -1.34, -1.34, -1.79, -1.58, -1.26, -1.26, -1.26, -0.0, -0.0, -0.0, 0.63, 1.79, 0.89, 0.89, 1.34, 0.89, -0.0, -1.58, -1.2, -1.26, -1.2, 0.0, 2.4, 3.87, 3.98, 4.3, 7.71, 12.14, 13.67, 10.28, 3.72, 1.88, -0.71, -1.84, 0.0, 1.16, 2.51, 2.79, 2.12, 1.2, 1.26, 1.26, 1.34, 3.72, 2.21, 2.48, 4.36, 6.06, 3.64, 3.08, 3.12, 1.8, 1.8, 5.62, 5.62, 5.62, 6.27, 6.27, 6.27, 6.27, 6.92, 6.92, 6.92, 7.57, 7.57, 8.22, 8.59, 9.5, 9.5, 8.87, 7.96, 7.24, 7.73, 10.18, 11.28, 10.99, 10.72, 10.13, 9.48, 6.97, 4.75, 3.49, 2.84, 3.49, 3.49, 3.48, 2.51, 1.2, -0.95, -2.68, -4.02, -4.47, -4.47, -4.02, -4.02, -4.02, -3.58, -3.13, -1.79, -1.79, -1.79, -2.24, -1.58, -1.58, -1.26, -1.26, -0.0, -0.0, 0.89, 1.34, 0.89, 1.34, 0.45, 0.89, -1.9, -2.53, -2.68, -1.34, -1.34, -0.89, 0.45, 2.5, 4.07, 5.49, 8.27, 11.83, 13.21, 11.15, 7.69, 2.22, 0.0, -2.53, -1.84, 0.0, 0.57, 0.45, -1.0, -1.2, -1.58, -1.26, -0.0, 3.13, 3.58, 3.72, 5.3, 5.0, 2.86, 1.73, 1.88, 1.11, 1.11, 5.62, 5.62, 5.62, 6.27, 6.27, 6.27, 6.27, 6.92, 6.92, 7.32, 7.57, 7.57, 8.22, 8.59, 9.21, 9.5, 8.87, 8.58, 8.87, 9.84, 10.43, 10.4, 10.12, 10.13, 10.75, 10.09, 7.86, 5.06, 2.86, 1.61, 1.61, 1.84, 1.84, 1.84, 1.16, 0.0, -1.86, -3.13, -3.58, -4.02, -4.02, -3.58, -3.58, -3.58, -3.13, -2.68, -1.79, -1.79, -2.24, -2.24, -1.79, -1.79, -1.34, 1.34, 0.89, 1.34, -0.0, -0.0, 0.0, 0.45, -0.63, -1.24, -1.58, -1.7, -1.34, -1.34, -1.34, -0.89, -0.0, -0.0, 0.66, 4.47, 9.45, 10.62, 4.36, 4.6, 4.8, 2.44, -0.57, -3.2, -3.07, -2.0, -1.7, -1.86, -1.26, -1.7, -1.34, 0.0, 3.43, 5.67, 7.54, 6.98, 4.43, 1.88, 0.0, 0.59, 0.0, 0.0, 5.62, 5.62, 5.62, 6.27, 6.27, 6.27, 6.27, 6.68, 6.92, 7.32, 7.57, 7.57, 8.22, 8.59, 8.86, 9.21, 8.87, 8.59, 9.5, 10.75, 11.58, 10.94, 10.06, 9.77, 9.8, 9.72, 8.45, 7.15, 4.37, 2.23, 1.2, 1.0, 1.2, 1.16, 1.13, 0.51, -0.54, -1.86, -2.63, -3.13, -3.13, -3.13, -3.13, -3.13, -2.68, -2.63, -1.79, -1.79, -1.79, -1.79, -1.79, -1.79, -1.34, -1.34, 0.89, -0.0, -0.63, -1.2, 0.45, 0.0, 0.0, -0.6, -0.6, -0.63, -1.2, -1.2, -0.45, -0.32, 0.45, -0.63, -1.34, 0.6, 9.26, 3.95, 0.76, 1.32, 3.46, 4.0, 1.6, -1.49, -3.87, -3.87, -2.63, -1.7, -1.7, -1.6, -0.54, 0.57, 3.55, 7.27, 8.24, 5.37, 2.79, 0.45, 0.0, 0.0, 0.59, 0.59, 5.62, 5.62, 5.62, 5.62, 6.27, 6.53, 6.53, 6.94, 7.19, 7.59, 7.32, 7.96, 8.22, 8.59, 8.86, 8.87, 8.87, 9.21, 10.13, 11.03, 11.92, 11.52, 11.16, 10.01, 9.42, 8.82, 8.78, 8.08, 6.79, 4.71, 2.84, 1.88, 1.2, 1.2, 1.13, 0.59, 0.51, 0.0, -1.26, -2.12, -2.17, -2.24, -2.68, -2.24, -2.6, -2.49, -2.0, -1.26, -1.34, -1.34, -1.34, -1.34, -0.89, -1.34, 0.89, -0.0, -0.0, -0.89, 0.45, 0.45, 0.45, 0.0, 0.0, 0.45, -1.2, -0.63, 0.0, 0.45, 0.45, 0.45, 0.0, 5.15, 5.31, 2.5, 0.45, 0.0, 1.03, 2.98, 2.8, 1.24, -1.7, -3.53, -3.39, -2.5, -1.88, -1.16, 0.0, 0.67, 2.9, 3.15, 3.79, 1.58, 0.89, 0.89, 0.6, 0.53, 0.59, 0.59, 5.86, 5.86, 5.86, 5.86, 6.53, 6.53, 6.53, 6.94, 7.19, 7.59, 7.59, 7.96, 8.22, 8.59, 8.59, 8.87, 8.87, 9.5, 9.84, 11.03, 11.63, 11.58, 11.8, 10.59, 9.37, 8.45, 8.19, 8.15, 7.51, 6.79, 5.29, 4.07, 2.84, 2.23, 1.33, 1.13, 1.13, 0.53, 0.0, -0.6, -1.2, -1.6, -1.79, -1.79, -2.17, -2.4, -2.4, -1.86, -1.86, -1.58, -1.49, -0.89, -1.79, -1.79, -1.34, 1.34, -0.0, -0.89, -0.63, 0.0, 1.2, 0.63, 0.0, -0.89, -0.6, -0.63, 0.45, 0.0, -0.45, 0.54, 1.3, 3.55, 4.89, 3.07, 0.89, 0.89, 1.58, 1.84, 1.98, 2.21, 0.99, -1.2, -2.91, -2.79, -2.23, -1.13, 0.0, 0.61, 0.63, 0.0, -0.45, -0.0, 1.34, 2.6, 2.4, 1.2, 0.0, 0.0, 5.86, 5.86, 5.86, 5.86, 6.29, 6.53, 6.53, 6.94, 6.94, 7.59, 7.59, 8.23, 8.23, 8.87, 8.87, 8.87, 9.5, 9.5, 10.45, 10.45, 11.36, 11.92, 11.87, 11.23, 10.01, 8.78, 8.19, 8.19, 8.15, 7.51, 6.79, 5.59, 4.71, 3.48, 2.86, 1.8, 1.8, 1.33, 1.2, 0.57, 0.0, 0.0, -0.63, -1.34, -1.7, -2.12, -2.12, -1.86, -1.86, -1.58, -1.26, -1.7, -2.24, -2.24, -1.79, -1.26, -1.26, -0.0, 0.0, 0.0, 0.6, 0.95, 0.45, 0.45, -0.63, -0.45, -0.45, -0.89, -1.34, 0.0, 1.76, 3.72, 4.73, 4.93, 4.3, 4.02, 3.58, 3.2, 2.79, 2.21, 1.84, 0.54, -2.6, -3.87, -3.35, -2.21, -0.51, 0.0, -1.16, -2.21, -1.61, 0.8, 2.68, 3.6, 3.07, 1.58, 0.0, 0.0, 5.86, 5.86, 5.86, 5.86, 6.29, 6.53, 6.53, 6.53, 6.94, 7.19, 7.59, 8.23, 8.23, 8.87, 8.87, 8.87, 9.5, 9.84, 10.45, 10.45, 11.36, 11.33, 11.58, 11.28, 10.65, 9.66, 8.78, 8.19, 7.86, 7.55, 7.51, 7.17, 6.87, 6.23, 5.59, 4.71, 3.49, 2.86, 2.23, 1.84, 1.61, 1.24, 0.8, 0.0, -0.89, -1.34, -1.2, -1.6, -1.26, -1.26, -1.26, -1.7, -2.12, -2.4, -1.7, -1.7, -2.0, -0.63, -0.0, 0.0, 0.0, 0.0, 0.89, 0.45, 0.0, 0.45, -0.45, -0.89, -1.26, 0.0, 1.23, 2.66, 5.06, 5.69, 5.2, 4.92, 5.81, 4.92, 3.6, 2.21, 1.84, 0.61, -2.12, -4.02, -3.7, -2.84, -1.84, -2.21, -3.07, -3.14, -1.8, 0.0, 3.16, 3.78, 2.84, 2.21, 1.0, 1.0, 5.86, 5.86, 5.86, 5.86, 6.29, 6.29, 6.53, 6.53, 6.94, 7.19, 7.59, 7.96, 8.23, 8.59, 8.87, 8.87, 9.5, 9.84, 10.45, 10.75, 11.03, 11.03, 11.33, 11.28, 10.36, 10.06, 9.42, 9.08, 8.78, 7.86, 7.55, 7.23, 6.92, 6.87, 6.23, 5.59, 4.43, 3.79, 3.15, 2.51, 2.23, 1.61, 1.24, 0.8, 0.63, 0.45, 0.45, -0.95, -0.95, -1.2, -1.2, -1.7, -2.12, -2.4, -2.68, -2.12, -1.6, -0.95, -0.63, 0.45, 0.0, 0.0, 0.63, 0.45, 0.0, 0.0, 0.0, 0.45, -0.6, 0.0, 1.13, 2.86, 4.36, 4.29, 3.79, 4.27, 5.2, 4.3, 2.5, 1.9, 1.61, 2.4, -0.8, -3.09, -3.87, -3.78, -3.79, -3.72, -3.07, -2.23, -1.8, 0.0, 2.22, 3.12, 3.15, 2.51, 1.84, 1.84, 5.86, 5.86, 5.86, 5.86, 6.29, 6.29, 6.53, 6.53, 6.53, 6.94, 7.59, 7.59, 8.23, 8.59, 8.87, 8.87, 9.5, 10.13, 10.13, 10.75, 10.75, 11.03, 10.99, 10.94, 10.36, 10.06, 9.72, 9.42, 9.37, 8.45, 8.15, 7.55, 7.23, 6.92, 6.87, 6.23, 5.59, 4.71, 4.11, 3.48, 2.84, 2.23, 1.61, 0.6, 0.63, 0.89, 0.89, 0.0, -0.45, -1.34, -1.34, -1.7, -2.12, -1.86, -2.5, -2.5, -1.26, -1.6, -1.2, -1.34, -1.34, -0.63, 0.0, 0.0, 0.45, 0.0, 0.0, 0.0, -0.89, -1.26, 0.53, 3.72, 6.64, 6.01, 4.4, 3.7, 2.66, 1.8, 1.2, 1.26, 1.49, 2.44, 0.0, -3.58, -3.58, -3.82, -3.6, -3.07, -1.88, -1.16, -1.16, 0.0, 0.57, 2.44, 2.44, 2.22, 1.8, 1.8, 5.86, 5.86, 5.86, 5.86, 5.86, 6.29, 6.29, 6.53, 6.53, 6.94, 6.94, 7.59, 8.23, 8.59, 8.87, 8.87, 9.5, 10.13, 10.13, 10.43, 10.75, 10.75, 10.72, 10.69, 9.77, 9.72, 9.72, 9.42, 9.08, 8.78, 8.73, 8.15, 7.55, 7.51, 6.92, 6.28, 6.23, 5.59, 4.71, 4.11, 3.48, 2.84, 2.53, 1.9, 1.26, 0.89, 0.89, 0.45, 0.89, -0.95, -1.34, -1.79, -1.7, -1.86, -1.9, -1.88, -2.53, -2.53, -1.86, -2.17, -2.24, -1.2, -0.6, -1.26, -0.89, -0.63, -0.89, -0.45, 0.45, 0.0, 0.59, 2.73, 7.06, 9.83, 8.65, 6.31, 2.04, 0.0, -0.53, 0.95, 1.79, 2.51, 1.23, -1.9, -4.77, -3.39, -3.13, -2.17, -1.49, -0.99, -0.57, 0.0, 0.0, 1.23, 1.88, 1.88, 1.76, 1.76, 5.64, 5.64, 5.86, 5.86, 5.86, 6.29, 6.29, 6.29, 6.53, 6.94, 6.94, 7.33, 7.96, 8.23, 8.59, 9.21, 9.5, 9.82, 10.13, 10.43, 10.43, 10.72, 10.4, 10.09, 9.77, 9.72, 9.13, 9.08, 9.02, 9.02, 9.02, 8.45, 8.15, 7.23, 6.92, 6.87, 6.28, 5.98, 5.59, 4.94, 4.41, 3.48, 2.84, 2.21, 1.58, 0.6, 0.6, 0.0, -0.63, -0.95, -1.2, -1.34, -1.79, -1.86, -1.86, -1.9, -2.21, -2.79, -3.6, -3.07, -2.68, -2.0, -1.58, -1.79, -0.63, -0.0, -0.89, -0.71, 0.85, 2.84, 1.94, 1.3, 3.78, 8.82, 11.86, 10.87, 6.68, 1.13, -1.88, -0.6, 0.45, 1.2, 1.8, 0.59, -2.68, -5.81, -6.72, -3.98, -3.53, -2.6, -1.34, -0.63, 0.0, 0.59, 1.3, 1.26, 1.19, 1.19, 5.64, 5.64, 5.64, 5.64, 5.86, 6.29, 6.29, 6.29, 6.29, 6.94, 6.94, 7.33, 7.59, 8.23, 8.59, 9.21, 9.21, 9.82, 9.82, 10.12, 10.4, 10.4, 10.12, 10.09, 9.17, 9.46, 9.42, 8.5, 8.3, 8.73, 9.37, 9.02, 8.19, 7.55, 7.17, 6.59, 6.28, 6.23, 5.65, 5.59, 4.94, 4.29, 4.0, 3.35, 3.07, 2.5, 1.24, 0.6, 0.0, 0.0, -0.63, -0.89, -0.89, -1.2, -1.6, -1.86, -2.15, -3.07, -4.11, -4.92, -3.07, -2.8, -2.17, -1.7, -0.71, -0.65, -0.0, 0.65, 1.41, 3.91, 2.48, 0.0, 0.66, 4.66, 11.98, 12.14, 8.3, 2.21, -0.6, -0.95, 0.0, 0.89, 1.2, 2.53, 0.0, -3.58, -6.16, -7.26, -4.93, -4.0, -3.07, -1.7, -0.32, 0.0, 0.61, 0.67, 0.61, 0.61, 5.64, 5.64, 5.64, 5.64, 5.64, 6.06, 6.29, 6.29, 6.29, 6.7, 6.94, 6.94, 7.6, 8.24, 8.87, 9.19, 9.5, 9.8, 9.8, 10.12, 10.12, 10.4, 10.09, 9.48, 9.17, 9.13, 9.08, 9.08, 8.78, 8.65, 8.19, 8.19, 8.15, 7.81, 7.51, 7.21, 6.87, 6.57, 6.23, 5.59, 5.29, 5.21, 4.29, 4.0, 3.35, 3.07, 2.5, 1.86, 1.26, 0.6, 0.0, 0.45, 0.45, -0.89, -0.63, -0.95, -1.2, -2.91, -3.98, -4.92, -4.6, -2.23, -1.79, -1.24, -1.2, -0.53, -0.0, 0.45, 2.15, 2.15, 0.0, -0.65, 0.0, 3.43, 10.68, 11.95, 3.48, 0.0, 0.0, 1.34, 2.24, 2.24, 2.24, 2.68, 3.39, 1.26, -2.24, -5.24, -4.0, -4.09, -3.14, -2.21, -1.2, 0.0, 0.0, 0.0, 0.0, 0.0, 5.64, 5.64, 5.64, 5.89, 5.89, 6.31, 6.31, 6.31, 6.56, 6.96, 6.96, 7.22, 7.6, 7.96, 8.87, 9.19, 9.19, 9.5, 9.8, 9.8, 10.09, 10.09, 10.09, 9.17, 9.13, 8.85, 8.82, 9.42, 9.72, 9.37, 8.15, 7.23, 7.51, 7.51, 7.51, 7.44, 6.87, 6.79, 6.23, 5.93, 5.86, 4.94, 4.84, 4.55, 4.27, 3.6, 3.6, 3.07, 2.8, 1.86, 1.26, 0.95, 0.45, 0.45, 0.45, 0.45, -0.89, -0.89, -3.13, -3.58, -3.39, -2.68, -1.6, -1.9, -1.9, -1.24, -1.24, -0.6, 0.45, 0.0, -1.86, -1.24, 0.0, 4.46, 9.92, 11.62, 4.3, 1.2, 2.15, 3.6, 4.43, 4.02, 3.58, 3.58, 3.58, 4.89, 3.53, 1.34, -0.99, -2.79, -2.84, -2.53, -1.58, -0.89, 0.0, 0.0, 0.0, 0.0, 5.89, 5.89, 5.89, 5.89, 5.89, 6.31, 6.31, 6.31, 6.31, 6.96, 6.96, 6.96, 7.6, 7.6, 7.96, 8.87, 9.48, 9.48, 9.77, 10.09, 10.09, 10.09, 9.77, 9.46, 8.85, 8.85, 9.13, 9.72, 10.3, 9.66, 8.15, 7.17, 6.92, 7.17, 7.8, 7.44, 7.44, 7.15, 6.23, 6.15, 5.59, 5.29, 5.21, 4.93, 4.55, 4.27, 4.11, 3.6, 3.2, 2.68, 2.4, 2.12, 1.2, 0.89, 0.45, 0.45, 0.45, 0.45, 0.0, 0.89, -2.24, -1.79, -2.97, -1.9, -2.0, -2.4, -1.6, -1.2, -0.45, -0.95, -1.88, -0.61, 1.66, 6.88, 9.57, 10.01, 8.05, 6.25, 6.64, 6.36, 5.36, 4.47, 3.98, 3.98, 3.58, 5.81, 5.81, 3.53, 2.4, -0.0, -1.61, -2.23, -1.61, -1.2, -0.53, -0.61, 0.0, 0.0, 5.67, 5.67, 5.67, 5.67, 5.89, 6.31, 6.31, 6.31, 6.31, 6.7, 6.96, 6.96, 7.33, 7.61, 8.24, 8.56, 9.17, 9.48, 9.77, 9.77, 9.77, 10.06, 9.72, 9.13, 8.85, 8.53, 9.13, 9.72, 9.72, 9.37, 8.73, 8.08, 7.17, 7.44, 7.44, 7.72, 7.72, 7.35, 6.79, 6.51, 5.93, 5.49, 5.21, 5.08, 4.69, 4.8, 4.4, 3.88, 3.6, 3.2, 2.68, 2.4, 2.12, 1.6, 1.34, 0.89, 0.45, 0.45, 0.45, 1.34, 1.34, -2.23, -2.97, -2.4, -1.6, -2.4, -2.0, -1.2, -0.63, 0.45, -0.71, 0.0, 2.07, 7.2, 9.6, 8.67, 7.6, 8.63, 9.15, 8.49, 6.22, 3.87, 2.91, 2.6, 2.68, 3.53, 3.87, 4.3, 3.87, 2.5, -0.0, -1.61, -1.9, -1.49, -0.99, -0.63, -0.62, -0.62, 5.67, 5.67, 5.67, 5.67, 5.67, 6.07, 6.07, 6.31, 6.31, 6.31, 6.7, 6.96, 7.61, 7.61, 8.24, 8.56, 9.17, 9.17, 10.06, 10.06, 10.06, 9.72, 9.46, 9.13, 8.82, 8.82, 9.13, 9.46, 9.42, 9.02, 8.73, 8.38, 8.08, 7.44, 7.44, 7.35, 7.35, 7.61, 7.07, 6.7, 6.15, 5.86, 5.58, 3.83, 4.9, 5.31, 4.9, 4.4, 3.88, 3.6, 3.07, 2.8, 2.4, 2.12, 1.7, 1.34, 1.34, 0.89, 0.89, 1.34, 1.79, 0.89, -1.6, -2.4, -1.6, -1.9, -1.6, -1.49, -0.8, 0.45, 0.0, -0.53, 0.85, 4.41, 10.62, 9.83, 7.89, 8.82, 10.01, 8.76, 4.8, 2.5, 1.2, 1.34, 1.49, 2.91, 3.82, 4.3, 4.11, 3.6, 1.86, -0.0, -1.58, -1.86, -1.79, -1.16, -1.19, -1.36, 5.67, 5.67, 5.67, 5.67, 5.67, 5.92, 6.33, 6.33, 6.33, 6.58, 6.97, 6.97, 7.61, 7.61, 7.95, 8.24, 8.85, 9.46, 9.72, 9.72, 9.72, 9.72, 9.42, 9.08, 8.82, 9.08, 9.42, 9.42, 9.08, 8.78, 8.73, 8.38, 8.08, 8.0, 7.44, 7.35, 7.35, 7.23, 7.23, 6.7, 6.41, 6.03, 5.49, 3.83, 5.31, 5.81, 5.6, 5.08, 4.8, 3.88, 3.6, 3.07, 2.91, 2.4, 2.12, 1.7, 1.6, 1.34, 1.34, 1.34, 1.79, 1.79, 0.45, -1.7, -1.7, -1.58, -1.4, -0.8, -1.26, -0.0, 0.45, -1.24, 0.0, 4.11, 10.93, 10.8, 7.67, 8.3, 9.49, 8.82, 4.37, 2.15, 1.34, 1.49, 2.15, 3.07, 3.87, 4.3, 4.73, 4.3, 3.39, 1.7, -0.0, -1.34, -1.79, -1.24, -0.59, -1.19, 5.67, 5.67, 5.92, 5.92, 5.92, 5.92, 6.33, 6.33, 6.33, 6.97, 6.97, 6.97, 7.33, 7.61, 7.95, 8.24, 8.85, 9.13, 9.46, 9.72, 10.01, 9.66, 9.42, 9.08, 9.08, 9.08, 9.42, 9.42, 9.02, 8.45, 8.15, 8.15, 8.44, 8.08, 8.0, 7.9, 7.35, 7.61, 7.23, 6.95, 6.95, 6.41, 5.86, 5.21, 4.4, 6.0, 5.75, 5.21, 4.55, 4.0, 3.88, 3.6, 3.2, 2.91, 2.4, 2.6, 2.12, 1.79, 1.79, 1.79, 1.79, 2.24, 1.79, 0.45, -2.4, -2.4, -0.63, -1.26, -1.34, -0.0, 0.0, -0.54, 0.0, 2.3, 8.79, 9.36, 8.01, 6.54, 8.67, 8.18, 4.27, 2.68, 2.4, 3.07, 3.6, 4.3, 4.77, 4.77, 4.77, 4.77, 4.43, 3.13, 1.34, 0.45, -0.63, -0.6, 0.0, -0.59, 5.69, 5.69, 5.69, 5.69, 5.69, 5.92, 6.33, 6.33, 6.33, 6.71, 6.71, 6.97, 7.33, 7.33, 8.24, 8.24, 8.53, 8.85, 9.42, 9.66, 9.66, 9.42, 9.08, 9.08, 9.08, 9.08, 9.42, 9.37, 8.78, 8.45, 8.15, 8.15, 8.08, 8.08, 8.37, 8.0, 7.9, 7.76, 7.61, 7.48, 6.95, 6.56, 6.41, 5.86, 5.86, 5.43, 5.75, 4.65, 4.55, 4.0, 4.27, 3.88, 3.6, 3.6, 3.32, 2.91, 2.4, 2.12, 2.12, 2.24, 2.24, 2.24, 0.89, 1.34, 0.89, -1.79, -0.89, -2.24, -1.34, -0.63, -0.0, 0.0, 0.0, 1.7, 2.79, 6.2, 8.49, 8.46, 7.89, 6.07, 3.32, 2.4, 3.72, 5.2, 5.94, 5.67, 5.32, 5.32, 5.32, 4.88, 4.88, 4.02, 2.6, 1.26, 0.6, 0.0, 0.54, 0.54, 5.69, 5.69, 5.69, 5.69, 5.69, 5.69, 6.08, 6.33, 6.33, 6.71, 6.71, 6.98, 7.61, 7.61, 7.93, 8.24, 8.53, 8.53, 9.42, 9.42, 9.42, 9.42, 9.08, 9.08, 9.08, 9.08, 9.37, 9.37, 8.78, 8.73, 8.15, 8.15, 8.08, 8.08, 8.08, 8.0, 8.0, 7.9, 8.15, 7.61, 7.48, 7.08, 6.95, 6.56, 6.95, 6.41, 5.75, 4.93, 4.55, 4.0, 4.27, 3.88, 3.88, 3.6, 3.6, 3.32, 2.4, 2.4, 2.17, 2.17, 2.24, 2.24, 1.79, 0.45, 0.45, 1.34, -1.79, -1.79, -0.63, -0.63, 0.45, 0.0, 0.0, 0.61, 1.55, 3.35, 6.64, 7.98, 6.0, 3.35, 2.24, 2.84, 5.31, 6.92, 6.85, 5.64, 5.32, 4.88, 4.92, 4.92, 4.92, 4.47, 3.58, 2.4, 1.2, 1.16, 1.16, 1.16, 5.69, 5.69, 5.69, 5.69, 5.69, 5.69, 6.08, 6.34, 6.34, 6.98, 6.98, 6.98, 7.32, 7.61, 7.61, 7.93, 8.24, 8.53, 9.42, 9.42, 9.42, 9.37, 9.37, 9.37, 9.37, 9.37, 9.37, 9.02, 8.78, 8.73, 8.38, 8.15, 8.08, 8.08, 8.08, 8.0, 8.0, 8.27, 7.9, 7.9, 7.61, 7.61, 7.48, 7.08, 7.08, 7.2, 6.28, 5.6, 5.08, 4.8, 4.27, 3.88, 3.88, 3.88, 3.6, 3.6, 2.91, 2.91, 2.4, 2.6, 2.6, 2.24, 2.24, 0.89, 0.45, 0.45, -2.24, -1.58, -0.63, -0.63, 0.45, 0.0, 0.0, 1.3, 2.18, 3.7, 5.21, 5.72, 4.37, 3.58, 3.43, 6.95, 8.11, 7.33, 6.42, 5.67, 5.32, 4.88, 4.92, 4.92, 4.47, 4.47, 4.02, 1.9, 1.16, 1.84, 1.84, 1.84, 5.69, 5.69, 5.69, 5.69, 5.95, 5.95, 6.34, 6.34, 6.34, 6.34, 6.98, 6.98, 7.32, 7.61, 7.61, 7.93, 7.93, 8.53, 8.82, 9.42, 9.42, 9.37, 9.37, 9.37, 9.37, 9.37, 9.37, 9.02, 8.73, 8.73, 8.38, 8.15, 8.08, 8.08, 8.08, 8.0, 8.0, 8.0, 8.27, 7.9, 7.9, 7.61, 7.61, 7.48, 7.48, 7.48, 7.2, 6.51, 6.0, 5.81, 5.31, 4.8, 4.27, 3.88, 3.88, 3.6, 3.07, 3.07, 2.91, 2.8, 2.4, 2.17, 2.24, 1.79, 0.45, 0.0, -2.24, -1.2, -0.63, -0.89, 0.45, 0.0, 0.59, 1.3, 2.6, 2.44, 3.16, 4.52, 4.77, 5.69, 7.73, 9.2, 9.32, 8.06, 5.67, 5.2, 5.2, 5.32, 5.36, 4.92, 4.92, 4.02, 3.07, 1.9, 1.16, 1.13, 1.13, 1.13, 5.26, 5.26, 5.69, 5.69, 5.95, 5.95, 6.34, 6.34, 6.34, 6.34, 6.7, 6.98, 6.98, 7.32, 7.61, 7.93, 7.93, 8.82, 8.82, 9.08, 9.08, 9.37, 9.37, 9.37, 9.37, 9.37, 9.02, 9.02, 8.73, 8.73, 8.38, 8.38, 8.44, 8.08, 8.08, 7.73, 8.0, 8.0, 8.0, 7.9, 7.9, 7.9, 7.61, 7.61, 8.0, 7.48, 7.71, 7.2, 7.01, 6.51, 6.3, 5.81, 5.31, 4.8, 4.4, 3.35, 3.35, 3.07, 3.07, 2.68, 2.4, 2.6, 2.12, 2.12, 1.6, 0.0, -1.34, -0.89, -0.89, -0.89, 0.0, 0.0, 1.2, 1.84, 1.9, 1.34, 2.24, 4.02, 5.86, 5.59, 6.05, 9.3, 10.43, 8.67, 6.58, 5.32, 5.33, 6.26, 5.81, 6.26, 3.47, 3.97, 3.39, 2.5, 1.4, 1.33, 1.33, 1.33, 5.26, 5.26, 5.69, 5.95, 5.7, 5.7, 6.08, 6.34, 6.34, 6.34, 6.7, 6.7, 6.98, 7.32, 7.32, 8.22, 8.22, 8.22, 8.82, 8.82, 9.08, 9.08, 9.37, 9.37, 9.37, 9.37, 9.02, 9.02, 9.08, 8.73, 8.73, 8.38, 8.15, 8.08, 8.08, 7.73, 8.0, 8.0, 7.64, 7.9, 7.9, 7.9, 7.61, 7.61, 7.76, 8.0, 7.48, 7.31, 6.8, 7.01, 6.6, 6.72, 6.3, 5.81, 4.8, 4.27, 3.88, 3.35, 3.14, 3.07, 2.5, 2.4, 2.0, 2.17, 2.12, 0.45, 0.89, 1.34, -1.34, 0.0, 0.0, 0.0, 0.0, 0.0, 0.45, 0.6, 2.17, 3.82, 4.11, 3.0, 3.79, 8.3, 11.03, 9.86, 8.25, 6.58, 5.36, 5.36, 5.36, 4.43, 3.98, 3.82, 3.82, 3.07, 1.88, 1.16, 1.16, 1.16, 5.04, 5.04, 5.45, 5.7, 5.7, 5.7, 6.08, 6.08, 6.08, 6.34, 6.7, 6.7, 6.98, 7.6, 7.6, 7.9, 8.22, 8.22, 8.5, 8.82, 9.08, 9.08, 9.37, 9.37, 9.37, 9.37, 9.37, 9.02, 9.08, 8.73, 8.73, 8.38, 8.15, 8.08, 8.08, 8.08, 7.73, 8.0, 7.44, 7.44, 7.72, 7.35, 7.35, 7.61, 7.61, 8.0, 7.48, 7.71, 7.31, 7.2, 6.8, 7.01, 6.6, 6.72, 5.81, 5.31, 4.8, 4.27, 3.72, 3.14, 2.79, 2.5, 2.4, 2.4, 1.86, 1.79, 0.89, 1.79, -2.24, -0.63, -0.6, -0.57, -1.26, -1.34, -0.45, -0.0, 1.2, 1.9, 2.0, 2.66, 3.48, 7.03, 9.84, 9.78, 9.86, 7.94, 5.36, 4.44, 4.88, 4.92, 4.43, 3.82, 3.6, 3.6, 2.53, 1.16, 1.16, 1.16, 5.04, 5.04, 5.29, 5.7, 5.7, 5.7, 5.7, 6.08, 6.35, 6.35, 6.98, 6.98, 6.98, 7.6, 7.6, 7.6, 8.22, 8.22, 8.5, 8.5, 8.82, 9.08, 9.08, 9.37, 9.37, 9.37, 9.37, 9.02, 8.78, 8.73, 8.73, 8.38, 8.15, 8.15, 8.08, 8.08, 7.73, 7.51, 7.8, 7.44, 7.72, 7.35, 7.35, 7.61, 7.61, 7.61, 7.48, 7.48, 6.95, 6.95, 7.2, 6.8, 6.8, 6.28, 6.1, 5.6, 5.47, 5.08, 4.55, 3.64, 3.35, 2.79, 3.07, 2.5, 1.86, 1.26, 0.0, -1.34, -2.0, -1.34, 0.0, 0.0, -1.49, -1.79, -0.89, 0.45, -0.0, 0.57, 1.16, 2.23, 3.35, 4.09, 5.72, 8.67, 9.46, 8.02, 3.87, 3.2, 3.87, 4.88, 5.33, 4.73, 4.0, 3.35, 2.53, 1.61, 1.61, 1.61, 5.04, 5.29, 5.29, 5.7, 5.7, 5.7, 5.7, 6.35, 6.35, 6.35, 6.98, 6.98, 6.98, 7.3, 7.6, 7.6, 7.9, 8.22, 8.22, 8.5, 8.5, 9.08, 9.08, 9.08, 9.37, 9.37, 9.02, 8.78, 8.78, 8.45, 8.73, 8.73, 8.38, 8.15, 8.08, 8.08, 7.73, 7.51, 7.8, 7.44, 7.44, 7.35, 7.35, 7.35, 7.61, 7.23, 7.23, 7.07, 6.95, 6.95, 6.95, 6.41, 6.41, 6.28, 6.28, 5.75, 6.0, 5.6, 5.08, 4.55, 4.0, 3.43, 3.14, 2.21, 1.9, 1.0, 0.0, -0.63, -1.34, -0.45, 0.0, 1.34, 1.2, -1.2, -1.34, -1.34, -0.8, -0.63, -0.0, 1.49, 2.91, 2.79, 3.49, 5.86, 9.81, 5.36, 3.87, 2.79, 2.79, 3.88, 5.02, 5.51, 4.8, 3.72, 3.14, 1.84, 1.84, 1.84, 5.29, 5.29, 5.29, 5.29, 5.7, 5.7, 5.98, 6.35, 6.35, 6.35, 6.35, 6.98, 6.98, 6.98, 7.6, 7.6, 7.9, 8.22, 8.22, 8.5, 8.5, 8.5, 9.08, 9.08, 9.08, 9.37, 8.78, 8.78, 8.78, 8.45, 8.73, 8.73, 8.38, 8.15, 7.81, 8.08, 8.08, 7.51, 7.51, 7.51, 7.44, 7.44, 7.35, 7.15, 7.15, 7.07, 7.07, 7.07, 7.07, 6.7, 6.7, 6.41, 6.41, 6.41, 5.86, 5.86, 5.75, 5.75, 5.21, 5.21, 4.55, 4.0, 3.43, 2.79, 1.88, 1.2, 0.0, -0.71, -1.24, -0.99, -0.95, 0.45, 1.79, 2.12, -0.45, -1.79, -2.24, -1.7, -0.89, 0.45, 1.7, 2.15, 2.68, 4.43, 8.91, 5.78, 3.87, 2.21, 1.61, 2.23, 4.0, 5.31, 5.05, 3.72, 2.23, 1.2, 1.2, 1.2, 5.06, 5.06, 5.06, 5.06, 5.46, 5.98, 5.98, 6.35, 6.35, 6.35, 6.35, 6.98, 6.98, 6.98, 7.6, 7.6, 7.9, 8.22, 8.22, 8.5, 8.5, 8.5, 8.82, 9.08, 9.08, 9.12, 8.78, 8.78, 8.78, 8.45, 8.45, 8.73, 8.15, 8.15, 8.15, 7.81, 8.08, 7.85, 7.51, 7.51, 7.17, 7.44, 6.87, 6.87, 7.15, 7.15, 6.79, 7.07, 7.07, 6.7, 6.51, 6.51, 6.15, 5.93, 5.86, 5.86, 5.86, 5.49, 5.29, 5.21, 4.84, 4.29, 3.78, 2.84, 2.23, 1.16, 0.0, 0.0, -0.61, -1.88, -2.15, -1.24, 0.57, 1.86, 0.95, -0.32, -1.79, -2.24, -0.89, 0.0, 0.89, 1.7, 2.63, 9.36, 9.36, 7.12, 3.53, 0.57, 0.0, 1.13, 3.15, 4.41, 4.73, 3.43, 1.88, 0.0, 0.0, 0.0, 5.06, 5.06, 5.06, 5.06, 5.46, 5.72, 5.98, 5.98, 6.35, 6.35, 6.35, 6.98, 6.98, 6.98, 7.6, 7.6, 7.6, 8.22, 8.22, 8.22, 8.5, 8.5, 8.82, 8.82, 8.82, 8.78, 8.78, 8.78, 8.78, 8.45, 8.45, 8.73, 8.15, 8.15, 8.15, 7.81, 7.81, 7.85, 7.51, 7.51, 7.17, 6.92, 7.21, 6.87, 6.87, 7.15, 7.15, 6.79, 6.79, 6.79, 6.51, 6.51, 6.15, 5.93, 5.59, 5.59, 5.35, 5.01, 5.29, 5.29, 5.21, 4.65, 4.07, 3.48, 2.86, 1.8, 1.8, 0.55, 0.0, -0.65, -0.99, -0.99, 0.0, 0.54, 1.24, 0.0, -1.34, -1.7, -0.63, 0.0, 0.0, 0.89, 4.47, 8.49, 9.39, 7.12, 3.13, 0.0, 0.0, 0.61, 2.23, 3.79, 4.12, 3.14, 1.26, 0.0, 0.0, 0.0, 5.06, 5.06, 5.06, 5.06, 5.72, 5.72, 5.98, 5.98, 6.35, 6.35, 6.63, 6.98, 6.98, 6.98, 7.6, 7.6, 7.6, 8.22, 8.22, 8.22, 8.5, 8.5, 8.5, 8.5, 8.5, 8.5, 8.78, 8.78, 8.78, 8.45, 8.19, 8.19, 8.15, 8.15, 8.15, 8.15, 7.81, 7.55, 7.55, 7.23, 7.25, 6.92, 6.92, 7.21, 6.87, 6.87, 7.15, 7.15, 6.79, 6.79, 6.57, 6.57, 6.23, 5.93, 5.93, 5.35, 5.35, 5.35, 5.01, 5.29, 4.71, 4.71, 4.65, 4.07, 3.15, 2.48, 2.22, 1.76, 0.61, 0.0, 0.0, 0.0, 0.0, 0.0, 0.0, 0.0, -1.24, -1.16, -0.53, -0.54, -0.57, 0.0, 3.98, 5.36, 7.15, 6.26, 3.58, 0.0, -0.6, 0.0, 1.6, 3.16, 3.72, 2.68, 1.2, 0.0, 0.0, 0.0, 5.06, 5.06, 5.06, 5.06, 5.72, 5.72, 5.98, 5.98, 6.35, 6.35, 6.63, 6.98, 6.98, 6.98, 7.32, 7.32, 7.32, 7.93, 8.22, 8.22, 8.22, 8.5, 8.5, 8.5, 8.5, 8.5, 8.5, 8.78, 8.78, 8.19, 8.19, 8.19, 8.19, 8.15, 8.15, 8.15, 7.81, 7.55, 7.55, 7.23, 6.95, 6.92, 6.92, 6.92, 6.87, 6.87, 6.87, 6.87, 7.15, 6.79, 6.79, 6.57, 6.23, 5.65, 5.65, 5.35, 5.35, 5.35, 4.74, 4.74, 4.71, 4.71, 4.71, 4.11, 3.49, 2.86, 2.44, 2.44, 1.73, 1.2, 0.6, 0.45, 0.0, 0.0, 0.0, 0.0, 0.0, -0.66, -1.23, -1.27, -1.16, 0.61, 2.53, 4.3, 4.87, 4.73, 2.63, -0.32, -0.89, 0.0, 1.2, 2.53, 2.79, 2.15, 1.2, 0.0, 0.0, 0.0, 5.06, 5.06, 5.06, 5.06, 5.46, 5.72, 5.98, 5.98, 6.35, 6.35, 6.34, 6.7, 6.7, 6.98, 6.98, 7.32, 7.32, 7.61, 7.93, 7.93, 8.22, 8.22, 8.5, 8.5, 8.5, 8.5, 8.5, 8.5, 8.22, 8.19, 8.19, 8.19, 8.19, 7.86, 7.86, 7.86, 8.15, 7.55, 7.55, 7.23, 6.95, 6.64, 6.92, 6.92, 6.92, 6.87, 6.87, 6.87, 6.87, 6.87, 6.87, 6.57, 6.23, 5.98, 5.65, 5.37, 5.06, 5.06, 4.74, 4.74, 4.43, 4.43, 4.71, 4.71, 3.78, 3.12, 2.86, 2.86, 2.2, 1.4, 1.24, 0.6, 0.0, -0.57, -1.26, 0.0, 0.6, 0.0, -1.23, -1.35, 0.0, 0.0, 1.8, 3.16, 3.72, 3.35, 1.58, -0.63, -1.26, -0.0, 0.63, 1.24, 2.5, 2.15, 0.89, 0.0, 0.0, 0.0, 5.06, 5.06, 5.06, 5.06, 5.46, 5.7, 5.7, 5.7, 6.08, 6.34, 6.34, 6.7, 6.7, 6.98, 6.98, 7.32, 7.32, 7.61, 7.93, 7.93, 7.93, 7.93, 8.22, 8.5, 8.5, 8.5, 8.5, 8.22, 8.22, 7.9, 8.19, 8.19, 8.19, 7.86, 7.86, 7.86, 7.59, 7.27, 7.55, 7.55, 6.95, 6.64, 6.92, 6.92, 6.92, 6.92, 6.87, 6.87, 6.87, 6.87, 6.62, 6.28, 6.23, 5.98, 5.65, 5.37, 5.37, 5.06, 4.45, 4.74, 4.12, 4.43, 4.43, 4.43, 3.83, 3.49, 2.84, 3.12, 2.84, 1.16, 0.61, 0.65, 0.0, -0.57, -1.24, 0.0, 0.54, 0.65, -0.57, -1.19, -0.61, 0.0, 0.63, 2.44, 3.16, 3.16, 1.88, 0.0, -0.6, -0.0, -0.0, 0.0, 1.24, 1.6, 0.45, -0.0, -0.0, -0.0, 5.06, 5.06, 5.06, 5.06, 5.46, 5.7, 5.7, 5.7, 6.08, 6.34, 6.34, 6.7, 6.7, 6.98, 6.98, 7.32, 7.32, 7.61, 7.61, 7.93, 7.93, 7.93, 7.93, 7.93, 8.22, 8.22, 8.22, 8.22, 8.22, 7.9, 7.9, 8.19, 8.19, 8.19, 7.86, 7.59, 7.59, 7.27, 7.27, 7.27, 6.95, 6.64, 6.34, 6.64, 6.92, 6.92, 6.59, 6.87, 6.87, 6.87, 6.62, 6.28, 6.28, 5.98, 5.65, 5.37, 5.37, 5.06, 5.06, 4.45, 4.12, 4.42, 4.74, 4.43, 4.43, 3.83, 3.49, 2.84, 3.22, 3.08, 1.7, 0.61, 0.0, 0.0, 0.0, 0.0, 0.0, 0.0, -1.16, -1.23, -1.23, -0.63, 0.55, 1.94, 2.73, 3.16, 2.23, 1.24, 0.45, -0.0, -0.0, -0.0, 0.0, 0.45, -0.0, -0.0, -0.0, -0.0, 5.06, 5.06, 5.06, 5.06, 5.7, 5.7, 5.7, 5.7, 6.08, 6.34, 6.34, 6.7, 6.7, 6.98, 6.98, 6.98, 7.32, 7.61, 7.61, 7.61, 7.93, 7.93, 7.93, 7.93, 8.22, 8.22, 8.22, 8.22, 8.22, 7.9, 7.9, 7.9, 7.9, 8.19, 7.59, 7.59, 7.59, 7.27, 7.27, 6.95, 6.95, 6.34, 6.34, 6.34, 6.34, 6.92, 6.92, 6.59, 6.62, 6.62, 6.62, 6.28, 6.28, 5.98, 5.98, 5.65, 5.37, 5.06, 5.06, 4.45, 4.45, 4.12, 4.12, 4.74, 4.74, 4.12, 3.49, 3.49, 3.49, 3.49, 2.4, 0.61, 0.0, 0.0, 0.45, 0.0, 0.0, 0.0, -0.65, -1.13, -1.23, 0.0, 0.61, 1.94, 3.15, 3.48, 3.16, 2.21, 1.86, 0.89, -0.0, -0.0, -0.0, -0.0, -0.0, -0.0, -0.0, -0.0, 5.06, 5.06, 5.06, 5.29, 5.7, 5.7, 5.7, 5.7, 6.34, 6.34, 6.34, 6.34, 6.7, 6.98, 6.98, 6.98, 7.32, 7.61, 7.61, 7.61, 7.61, 7.93, 7.93, 7.93, 7.93, 8.22, 8.22, 8.22, 8.22, 7.9, 7.9, 7.6, 7.6, 7.6, 7.59, 7.59, 7.59, 7.27, 6.97, 6.67, 6.95, 6.34, 6.34, 6.34, 6.34, 6.34, 6.64, 6.32, 6.32, 6.62, 6.28, 6.28, 5.69, 5.69, 5.98, 5.65, 5.37, 5.06, 5.06, 5.06, 4.45, 4.45, 4.12, 4.45, 4.45, 4.74, 4.12, 3.47, 3.47, 3.47, 2.82, 1.7, 1.11, 0.63, 0.0, 0.0, 0.0, -0.71, -0.65, -1.13, -0.63, 0.0, 0.61, 1.73, 3.12, 3.15, 3.16, 3.14, 3.07, 2.4, 1.79, 0.89, -0.0, -0.0, -0.0, -0.0, -0.0, -0.0, 5.06, 5.06, 5.06, 5.29, 5.7, 5.7, 5.7, 5.7, 6.34, 6.34, 6.34, 6.34, 6.7, 6.98, 6.98, 6.98, 7.32, 7.61, 7.61, 7.61, 7.61, 7.93, 7.93, 7.93, 7.93, 8.22, 8.22, 8.22, 8.22, 7.9, 7.9, 7.6, 7.6, 7.6, 7.59, 7.59, 7.59, 7.27, 6.97, 6.67, 6.95, 6.34, 6.34, 6.34, 6.34, 6.34, 6.64, 6.32, 6.32, 6.62, 6.28, 6.28, 5.69, 5.69, 5.98, 5.65, 5.37, 5.06, 5.06, 5.06, 4.45, 4.45, 4.12, 4.45, 4.45, 4.74, 4.12, 3.47, 3.47, 3.47, 2.82, 1.7, 1.11, 0.63, 0.0, 0.0, -0.57, -0.71, -0.65, -1.13, -0.63, 0.0, 0.61, 1.3, 2.66, 3.43, 3.48, 3.43, 3.72, 3.6, 3.32, 2.6, 1.79, 1.34, 1.2, 1.2, 1.2, 1.2]}, {"header": {"dx": 0.06612293990616946, "dy": 0.0552356325346848, "nx": 98, "ny": 59, "la1": 35.046912555036876, "la2": 31.78801023549047, "lo1": -121.43107172385933, "lo2": -114.95102361305473, "refTime": "2026040713", "parameterCategory": 1, "parameterNumber": 3}, "data": [-10.13, -10.13, -9.76, -9.76, -9.63, -9.35, -8.43, -7.76, -7.48, -6.8, -5.75, -5.08, -2.4, -1.6, -1.2, -1.7, -2.17, -2.51, -1.66, -0.81, -0.0, 0.88, 2.73, 3.15, 3.48, 3.14, 2.53, 1.88, 1.2, 1.0, 0.57, 0.6, -0.0, 0.0, 0.0, 0.0, 0.0, 0.0, 0.0, 0.89, 0.8, 0.57, 0.0, -1.66, -4.2, -6.21, -8.5, -9.54, -10.32, -9.31, -1.4, 1.34, 1.49, 2.5, 3.45, 4.09, 4.46, 3.64, 3.55, 2.8, 1.27, -0.6, -1.26, -0.0, 0.63, 1.61, 1.84, 1.35, 2.26, 2.17, 2.28, 0.8, 0.0, 0.0, 0.0, 0.76, 0.74, 0.0, 0.0, -0.0, 0.54, 0.54, -0.0, -0.0, -0.8, -0.8, -0.89, -1.2, -1.2, -2.0, -4.46, -5.94, -6.68, -6.68, -5.69, -4.11, -3.16, -2.8, -10.13, -10.13, -9.76, -9.76, -10.02, -9.48, -8.82, -8.15, -7.76, -6.95, -6.28, -3.45, -2.5, -1.86, -0.89, -1.26, -2.0, -2.54, -2.07, -1.94, -1.84, -0.0, 0.81, 2.3, 3.16, 3.14, 2.53, 2.15, 0.61, -0.0, 0.65, 0.71, 0.8, 1.2, 1.34, 1.26, 0.0, 0.0, -0.6, 0.0, 0.0, -0.65, -2.99, -6.14, -9.1, -11.29, -11.92, -11.92, -10.98, -3.16, 1.79, 2.17, 2.5, 3.14, 4.09, 4.46, 4.81, 4.36, 3.79, 2.9, 2.12, 0.61, 0.0, 0.89, 1.86, 1.88, 2.07, 2.2, 2.2, 2.23, 2.97, 1.44, 0.0, 0.0, 0.0, 0.0, 0.73, 0.0, 0.0, -0.0, 0.54, 0.54, -0.0, -0.0, -0.8, -0.8, -0.89, -1.2, -1.2, -2.0, -4.46, -5.94, -6.68, -6.68, -5.69, -4.11, -3.16, -2.8, -9.76, -10.3, -9.92, -9.76, -10.02, -9.63, -9.1, -8.43, -8.15, -7.48, -6.95, -6.28, -3.45, -2.23, -0.95, -0.6, -1.9, -2.8, -2.49, -2.41, -2.44, -2.99, -2.09, -0.0, 1.49, 2.51, 3.14, 2.53, 1.16, -0.0, -0.59, -0.0, 0.61, 1.49, 2.24, 1.58, 1.16, 0.0, -1.13, -1.16, -2.23, -5.69, -9.9, -12.84, -14.76, -15.09, -14.42, -13.11, -4.73, 1.34, 3.13, 2.91, 3.07, 4.09, 4.27, 4.46, 4.46, 4.36, 4.03, 3.09, 2.82, 2.2, 1.49, 2.15, 2.84, 2.79, 3.43, 3.9, 4.03, 4.37, 3.78, 2.97, 0.79, -0.66, -1.13, -0.66, 0.0, 0.0, -0.63, -0.0, -0.0, -0.0, -0.6, -1.24, -1.2, -1.0, -0.6, -1.34, -2.21, -3.55, -5.52, -6.88, -7.31, -6.68, -3.48, -1.61, -0.65, -1.2, -9.76, -9.92, -9.92, -9.92, -10.02, -10.02, -9.63, -9.35, -8.68, -7.76, -7.48, -6.8, -3.6, -2.91, -1.6, -1.58, -2.21, -2.15, -2.5, -1.86, -1.8, -1.66, -2.21, -2.9, -0.69, 0.79, 1.84, 2.5, 1.58, -0.0, -1.8, -1.94, -1.35, -0.61, 0.0, 0.0, 0.0, -0.79, -3.0, -5.59, -8.6, -12.49, -14.5, -14.13, -14.13, -12.52, -10.9, -5.69, 0.8, 3.58, 3.82, 3.45, 3.83, 4.8, 5.05, 5.09, 4.43, 4.36, 3.69, 2.99, 2.18, 2.2, 2.98, 3.48, 5.09, 4.74, 4.65, 5.35, 6.95, 6.87, 6.09, 4.68, 2.23, 0.0, -2.53, -3.16, -2.9, -2.21, -1.26, -0.61, -0.54, -0.6, -1.24, -1.84, -1.27, -0.53, -0.63, -1.7, -3.16, -6.14, -6.2, -6.14, -5.43, -2.21, 0.0, 0.99, 0.0, 0.0, -10.02, -10.16, -10.16, -10.16, -10.16, -10.02, -9.63, -9.35, -8.96, -8.68, -8.0, -7.31, -4.24, -2.91, -3.2, -3.22, -2.86, -2.53, -2.21, -2.68, -1.66, -0.95, -0.0, -1.01, -1.4, -0.95, -0.0, -0.0, -0.0, -0.0, -1.9, -3.48, -6.68, -6.7, -5.36, -5.09, -4.98, -6.32, -9.23, -12.16, -13.51, -11.87, -8.53, -5.13, -3.8, -3.7, -2.9, 0.0, 2.84, 3.49, 3.49, 3.84, 3.72, 4.4, 4.73, 4.43, 4.01, 3.9, 4.46, 3.7, 2.31, 2.29, 3.79, 5.46, 6.06, 6.01, 5.37, 5.43, 6.68, 7.59, 6.33, 5.29, 5.0, 3.69, 0.0, -3.6, -4.73, -3.79, -1.13, -1.2, -1.61, -1.88, -1.8, -1.94, -2.0, -2.21, -2.68, -3.14, -6.01, -6.79, -5.28, -4.36, -2.15, 0.6, 1.7, 0.0, -0.63, -1.23, -10.02, -10.02, -10.16, -10.16, -10.16, -10.16, -10.02, -9.63, -9.35, -8.68, -8.4, -7.71, -3.82, -3.04, -3.6, -3.45, -3.45, -3.22, -4.84, -4.02, -3.72, -4.5, -3.35, -1.96, -1.84, -3.0, -2.53, -2.86, -2.6, -2.24, -0.95, -1.34, -3.82, -9.83, -12.05, -11.15, -10.49, -10.48, -12.16, -13.14, -11.99, -9.4, -3.16, -0.69, 0.0, -0.77, -0.76, 0.0, 1.41, 2.51, 2.51, 3.16, 3.84, 4.09, 3.48, 3.72, 3.38, 3.38, 3.69, 3.11, 2.23, 2.98, 4.11, 5.06, 5.37, 5.59, 5.0, 4.43, 4.43, 5.21, 3.95, 3.85, 5.3, 5.3, 2.9, 0.0, -3.6, -3.07, -0.54, -1.2, -2.53, -3.16, -3.43, -3.72, -4.09, -5.32, -7.12, -7.6, -7.68, -7.02, -5.37, -4.43, -0.89, 1.16, -0.0, -1.13, -2.04, -2.04, -10.02, -10.02, -10.16, -10.16, -10.55, -10.55, -10.16, -10.02, -9.88, -9.2, -8.68, -7.81, -4.24, -2.4, -3.72, -3.22, -3.83, -4.84, -6.7, -6.25, -3.09, -2.73, -5.59, -7.27, -7.28, -6.99, -8.4, -8.37, -7.31, -3.82, -1.34, 0.0, -0.6, -3.98, -9.83, -11.62, -12.05, -11.76, -9.88, -8.88, -9.33, -9.33, -9.75, -9.67, -8.66, -6.1, -3.07, -0.76, 0.66, 2.2, 2.95, 3.16, 4.12, 3.78, 3.48, 3.07, 2.98, 2.66, 2.12, 2.17, 2.31, 2.11, 2.73, 2.79, 3.49, 4.11, 4.29, 2.73, 1.8, 1.41, 1.52, 1.52, 2.12, 1.5, 0.75, 0.0, 0.0, 0.0, 0.53, 0.0, -3.82, -5.86, -6.54, -7.06, -8.82, -10.7, -10.96, -9.83, -8.14, -6.64, -6.32, -4.52, -0.0, -0.0, -1.79, -3.16, -3.69, -3.55, -10.16, -10.16, -10.16, -10.16, -10.55, -10.55, -10.55, -10.16, -9.88, -9.48, -9.42, -8.72, -5.59, -3.2, -4.11, -3.48, -4.46, -4.43, -5.06, -4.74, 0.0, 1.84, -0.6, -5.02, -9.2, -9.33, -10.08, -10.28, -8.34, -6.32, -3.22, -3.04, -3.04, -4.15, -8.06, -10.63, -11.6, -10.93, -9.77, -6.18, -3.74, -5.73, -11.64, -12.18, -8.0, -2.84, -2.0, 0.0, 1.35, 2.99, 2.51, 3.16, 4.12, 4.46, 4.11, 3.72, 3.64, 2.8, 2.26, 1.49, 2.18, 1.35, 1.13, 1.9, 3.51, 3.14, 2.88, 1.23, 0.0, 0.0, 0.0, 0.0, -0.74, -2.25, -2.25, -0.67, 1.36, 2.8, 2.26, 0.76, -3.16, -7.12, -7.48, -8.47, -10.28, -10.98, -9.89, -7.45, -4.73, -4.52, -4.77, -2.79, -0.0, -1.16, -2.68, -3.78, -4.56, -3.9, -10.16, -10.16, -10.16, -10.16, -10.55, -10.55, -10.55, -10.55, -10.16, -10.0, -10.11, -10.18, -9.11, -8.63, -6.4, -5.43, -5.82, -5.43, -4.01, -2.3, 0.0, 1.05, 1.35, -1.16, -3.98, -4.15, -4.98, -7.28, -7.9, -7.28, -9.16, -12.07, -12.96, -11.88, -10.02, -8.67, -10.08, -10.08, -4.24, -0.95, 0.0, -0.71, -2.15, -1.26, -0.0, 0.95, 0.0, 0.0, 2.07, 3.49, 4.89, 4.09, 4.46, 4.43, 4.36, 3.79, 3.69, 2.99, 2.31, 1.49, 1.49, 0.7, 0.57, 2.24, 3.58, 3.14, 2.04, 1.47, 0.0, -0.59, -0.7, -0.65, -2.19, -2.82, -2.11, -0.72, 0.0, 0.71, 0.75, 0.67, 0.0, -4.92, -5.33, -6.71, -7.57, -8.24, -6.42, -3.53, -1.34, -1.86, -2.23, -1.23, -1.58, -2.5, -3.07, -3.78, -4.56, -4.36, -10.16, -10.16, -10.16, -10.16, -10.55, -10.55, -10.55, -10.55, -10.55, -10.8, -10.91, -10.91, -10.21, -11.28, -10.6, -9.97, -10.43, -10.85, -10.18, -8.79, -6.4, -3.22, -2.41, -1.33, -1.9, -2.24, -2.86, -4.89, -8.94, -10.7, -12.07, -10.68, -7.6, -5.81, -8.94, -8.89, -7.4, -2.5, 0.0, 2.12, 1.58, 0.0, 0.0, 1.2, 1.34, 1.2, 0.89, 0.89, 3.07, 4.43, 3.82, 3.49, 3.43, 3.64, 3.79, 4.46, 4.0, 3.06, 2.35, 1.52, 0.77, 0.0, 0.71, 3.58, 3.53, 3.49, 2.6, 2.2, 0.57, -0.59, -1.35, -2.06, -2.76, -2.06, -1.29, -0.67, -2.04, -2.18, -2.11, -1.39, 0.0, -1.3, -4.02, -3.98, -3.82, -3.6, -3.14, -1.2, 0.45, -0.0, -0.59, -1.6, -3.14, -3.39, -3.39, -3.78, -5.06, -4.11, -10.16, -10.16, -10.55, -10.55, -10.55, -10.55, -10.55, -10.55, -11.08, -11.08, -11.08, -11.36, -10.83, -10.91, -9.75, -11.23, -12.8, -14.31, -14.44, -14.57, -12.87, -9.81, -4.87, -3.32, -1.6, -0.89, -1.26, -1.58, -3.32, -6.2, -4.92, -2.24, -0.0, -0.0, -2.68, -5.73, -4.15, 0.0, 0.89, 0.71, 0.65, 0.0, 0.0, 0.0, 0.0, 0.63, 1.34, 2.24, 3.13, 3.58, 2.6, 1.61, 1.23, 2.04, 3.69, 5.13, 4.4, 2.89, 0.74, 0.0, 0.0, 0.0, 2.53, 4.02, 3.97, 3.48, 3.79, 3.47, 1.35, 0.0, -1.45, -2.7, -2.76, -2.11, -2.06, -2.17, -3.6, -4.56, -5.28, -5.2, -3.41, -2.06, -1.76, -2.5, -1.2, -0.51, -0.57, 0.0, 0.0, 0.0, -1.2, -2.15, -2.91, -3.58, -3.87, -4.12, -3.79, -3.43, -10.55, -10.55, -10.55, -10.55, -10.55, -10.55, -10.55, -11.08, -11.08, -11.22, -11.36, -11.75, -11.5, -10.79, -8.94, -9.21, -9.63, -10.91, -12.35, -13.21, -10.27, -5.79, -3.2, -1.49, -0.0, -0.0, -0.0, 1.58, 1.26, -0.71, -1.49, -0.0, 1.24, 1.26, 0.0, -1.7, -1.34, -0.0, 0.0, 0.0, 0.0, 0.0, 0.0, 0.0, 0.0, 0.0, 0.0, 0.0, 0.89, 0.89, -0.63, -1.24, -0.51, 0.0, 1.35, 2.35, 2.23, 1.43, 0.0, -0.71, 0.0, 1.27, 3.32, 3.58, 3.53, 3.16, 5.3, 5.86, 3.69, 1.36, 0.0, -0.71, -1.36, -1.41, -2.2, -3.06, -3.7, -5.59, -7.22, -7.73, -6.87, -3.88, -2.12, -1.88, -0.53, 0.0, -0.63, -0.61, -0.61, -0.63, -1.16, -1.86, -1.79, -2.6, -3.35, -3.78, -3.14, -2.6, -10.55, -10.55, -10.55, -10.55, -10.55, -10.55, -10.94, -10.83, -10.83, -11.22, -11.75, -11.5, -11.88, -11.44, -10.01, -8.53, -7.59, -7.23, -8.0, -8.28, -6.4, -3.2, -1.34, -0.54, -0.0, -0.0, 1.23, 2.4, 2.8, 1.12, -0.0, -0.0, 0.65, 0.57, -0.0, 0.6, -0.0, -0.0, -0.0, 0.6, 0.6, 0.63, 0.45, 0.45, 0.0, -1.34, -2.68, -3.13, -3.13, -3.58, -4.02, -4.44, -4.52, -4.27, -3.58, -3.63, -1.66, 0.0, -0.76, -0.59, 1.2, 2.17, 2.68, 1.79, 1.2, 1.9, 3.16, 3.64, 2.9, 2.12, 2.12, 1.52, 0.67, 0.0, -1.45, -3.61, -4.71, -5.49, -6.92, -7.22, -6.01, -5.0, -4.8, -5.21, -1.13, -0.57, -1.3, -1.3, -1.19, -0.61, -0.61, -1.27, -0.65, -1.9, -2.51, -2.23, -1.6, -1.6, -10.55, -10.55, -10.55, -10.55, -10.55, -10.3, -10.83, -10.83, -11.22, -11.22, -11.5, -11.5, -11.62, -11.72, -11.23, -9.77, -8.24, -6.98, -6.35, -6.06, -5.72, -3.4, -1.55, -1.0, -0.89, -0.65, -0.0, 1.07, 1.67, 1.12, -0.0, -0.0, -0.0, -0.0, -0.0, -0.0, -0.0, -0.0, 0.65, 1.16, 1.2, 0.57, -0.0, 0.0, 0.0, -0.63, -2.91, -4.47, -6.71, -8.05, -8.49, -10.23, -12.58, -12.08, -10.52, -8.84, -6.2, -3.16, -1.55, 0.0, 1.2, 1.2, 0.0, -0.89, -1.79, -0.89, 0.0, 0.0, 0.87, 2.48, 2.86, 2.44, 1.3, 0.0, -2.12, -3.78, -3.09, -2.66, -3.64, -3.72, -3.49, -6.08, -7.22, -6.87, -3.78, -3.64, -2.9, -1.94, -1.23, -0.55, 0.0, -0.61, -1.27, -1.33, -1.6, -1.2, -0.45, -1.6, -10.55, -10.55, -10.55, -10.55, -10.3, -10.68, -10.83, -10.83, -11.22, -10.96, -11.5, -11.62, -11.62, -11.72, -11.23, -10.69, -9.19, -7.95, -6.98, -6.7, -6.33, -5.02, -3.94, -2.89, -2.2, -1.86, -0.63, -0.0, 0.51, 0.55, 0.54, -0.0, -0.0, -0.0, -0.0, -0.0, -0.0, -0.0, 1.0, 1.61, 1.88, 0.8, -0.0, 0.0, 1.79, 1.34, 0.0, -1.58, -3.04, -4.02, -6.71, -8.67, -5.94, -3.04, -1.79, -3.13, -4.92, -5.02, -3.16, 0.0, -0.0, -0.0, -0.45, -2.68, -4.02, -4.02, -4.41, -2.6, 1.6, 3.13, 2.68, 1.23, 0.0, -1.4, -2.9, -1.3, 0.0, 0.0, -1.2, -1.2, -1.88, -2.84, -5.0, -4.14, -4.07, -6.7, -4.36, -2.0, -0.59, -0.57, -0.67, -1.26, -1.35, -1.27, -0.59, -1.26, -1.34, -1.34, -10.55, -10.55, -10.55, -10.3, -10.3, -10.83, -10.83, -10.83, -11.22, -11.34, -11.5, -11.62, -11.35, -11.72, -11.28, -10.99, -10.12, -9.19, -8.24, -7.61, -6.96, -6.29, -5.2, -3.91, -2.86, -2.14, -1.23, -0.53, 0.0, 0.0, 0.8, -0.0, -0.0, -0.0, -0.0, -0.0, -0.0, 1.26, 2.6, 3.16, 1.61, 0.95, 0.45, 1.34, 1.58, 2.0, 2.0, 0.0, 0.0, -0.63, -1.86, -1.58, 0.0, 0.89, 1.34, 0.0, -2.23, -2.86, -0.8, 0.0, 0.0, 0.0, 0.0, -0.63, -3.13, -5.81, -6.55, -1.33, 2.15, 2.24, 0.54, -0.63, -1.41, -2.18, -1.19, 0.8, 1.7, 1.6, 0.63, 0.45, 0.0, -0.54, -1.33, -1.47, -1.41, -0.65, -2.53, -0.54, -0.65, -0.59, -1.3, -1.94, -1.8, -1.23, -1.23, -1.88, -2.17, -2.17, -10.55, -10.55, -10.55, -10.3, -10.68, -10.83, -10.83, -11.22, -10.96, -11.34, -11.34, -11.62, -11.35, -11.44, -11.23, -10.69, -10.4, -9.8, -8.87, -8.24, -6.94, -6.53, -5.4, -3.89, -2.28, -1.18, -1.12, -1.16, -0.57, -0.61, -0.61, 0.0, 0.0, -0.0, -0.0, 1.2, 1.86, 1.9, 2.21, 1.9, 0.8, -0.0, 0.95, 0.6, 1.58, 1.58, 1.58, 1.26, 1.79, 1.79, 1.34, 1.79, 1.79, 0.0, 0.0, 0.0, 0.0, 0.0, 0.63, 0.0, 0.0, 0.0, 0.45, 0.45, 0.0, -2.63, -3.32, -1.49, -0.65, -0.89, -1.33, -3.12, -2.8, -1.94, 0.0, 1.2, 1.16, 1.2, 1.2, 1.26, 0.45, 0.0, -0.51, -1.23, -1.41, -0.61, 0.0, 0.0, -1.16, -2.11, -2.82, -1.94, -2.23, -2.44, -2.88, -2.51, -2.4, -2.4, -10.55, -10.55, -10.55, -10.3, -10.68, -10.83, -10.83, -10.96, -10.96, -11.34, -11.07, -11.62, -11.35, -11.52, -11.23, -10.36, -10.4, -9.82, -9.21, -7.59, -6.53, -5.83, -5.2, -2.87, -1.14, -0.56, -1.67, -1.79, -1.65, -2.37, -1.65, -1.73, -1.4, -0.95, 0.89, 1.7, 1.88, 0.76, -0.0, -0.0, -0.0, -0.0, -0.0, -0.0, -0.0, -0.0, -0.0, -0.0, 1.26, 1.26, 2.24, 1.79, 1.34, 0.0, 0.0, 0.0, 0.0, 0.0, 0.0, 0.0, 0.0, 1.34, 0.89, 2.0, 2.4, 0.45, -0.63, -3.13, -5.73, -5.81, -4.66, -4.27, -3.14, -1.7, -0.0, 0.59, -0.0, -0.0, -0.0, -0.0, 0.0, -0.71, -1.13, -2.66, -2.51, -2.53, -3.16, -0.53, -2.51, -4.07, -3.0, -1.94, -2.48, -3.78, -3.38, -2.51, -2.4, -2.4, -10.55, -10.55, -10.55, -10.68, -10.83, -10.83, -10.83, -10.96, -10.96, -10.96, -11.07, -11.44, -11.16, -11.16, -11.16, -10.24, -10.36, -10.12, -8.58, -6.29, -5.8, -5.77, -5.62, -3.88, -2.23, -2.23, -2.8, -3.15, -3.09, -3.81, -3.64, -3.47, -2.86, -1.61, 0.0, 1.9, 1.8, -0.0, -0.59, -0.76, -1.2, -0.65, -0.0, -0.0, -0.0, -0.0, -0.0, -0.0, 1.26, 1.26, 1.79, 1.79, 1.79, 1.34, 1.34, 0.0, 0.0, 0.0, 0.0, 0.0, 0.0, 1.34, 1.34, 2.12, 2.4, 1.26, 0.0, -2.51, -5.2, -4.47, -4.02, -2.21, -0.63, 0.0, 0.0, 0.0, -0.0, -1.13, -1.88, -1.86, -2.5, -2.51, -3.15, -3.79, -3.48, -4.12, -5.09, -4.75, -6.06, -4.41, -3.48, -2.66, -3.64, -4.43, -3.43, -3.16, -3.07, -3.07, -10.68, -10.55, -10.55, -10.83, -10.83, -10.83, -10.83, -10.96, -10.96, -10.96, -11.07, -11.07, -11.16, -11.16, -11.23, -10.65, -10.36, -10.01, -8.3, -6.88, -6.77, -7.53, -8.22, -7.44, -7.52, -6.79, -5.49, -5.72, -5.1, -5.08, -4.75, -4.12, -3.49, -2.79, -1.2, 0.57, 1.13, -0.0, -0.54, -1.19, -1.08, -0.57, -0.0, -0.0, -0.0, -0.0, -0.0, -0.0, 1.58, 1.26, 1.26, 1.26, 1.79, 1.79, 0.45, 0.63, 0.0, 0.0, 0.0, 0.0, 0.0, 1.34, 1.58, 2.4, 1.26, 0.6, 0.0, -1.2, -1.11, 0.57, 1.23, 2.31, 3.04, 2.28, 0.0, -2.48, -2.5, -2.12, -3.07, -3.13, -2.91, -3.14, -2.23, -0.71, -0.6, -1.26, -1.26, 0.0, -2.48, -2.21, -3.72, -5.09, -5.3, -5.09, -4.93, -4.37, -3.6, -3.6, -10.68, -10.68, -10.68, -10.83, -10.83, -10.83, -10.83, -10.96, -10.96, -10.96, -11.07, -11.07, -11.16, -10.88, -11.28, -11.28, -10.65, -9.66, -9.66, -9.27, -9.4, -9.5, -9.84, -10.13, -10.72, -9.48, -7.55, -5.93, -4.65, -4.55, -4.07, -4.07, -3.48, -3.14, -2.4, -0.95, -0.0, -0.0, -0.0, -0.0, -0.0, -0.0, -0.0, -0.0, -0.0, -0.0, -0.0, -0.0, -0.0, 1.58, 1.58, 1.26, 1.26, 1.34, 0.89, 0.0, 0.0, 0.0, 0.0, 0.0, 0.0, 1.9, 2.53, -0.0, -0.0, -0.0, -0.0, 0.0, 1.88, 4.75, 7.06, 7.52, 6.31, 2.33, -0.74, -5.38, -3.88, -2.68, -2.53, -3.07, -2.24, -1.7, 0.0, 2.0, 2.4, 1.58, 1.26, 0.45, 0.0, 0.0, -2.48, -6.06, -5.72, -4.0, -4.6, -5.02, -3.87, -3.87, -10.68, -10.68, -10.68, -10.83, -10.83, -10.83, -10.83, -10.96, -10.96, -10.7, -11.07, -11.07, -11.16, -10.88, -10.94, -11.28, -10.65, -9.72, -10.65, -10.99, -10.43, -9.82, -10.12, -10.72, -10.75, -9.5, -7.3, -5.06, -3.43, -2.68, -2.68, -3.07, -3.07, -3.07, -2.91, -2.24, -1.24, -0.0, -0.0, -0.0, -0.0, -0.0, -0.0, -0.0, -0.0, -0.0, -0.0, -0.0, -0.0, -0.0, -0.0, -0.0, -0.0, 0.0, 0.0, 0.0, 0.45, 0.45, 0.0, 0.0, 0.63, 1.86, 1.58, 0.57, -0.0, -0.0, -0.0, -0.0, 1.34, 3.58, 3.97, 5.59, 5.09, 1.52, -5.09, -9.2, -9.6, -4.27, -1.7, -1.6, -1.84, -1.0, 0.57, 1.24, 1.26, 0.57, -0.0, -1.34, -2.86, -1.26, -4.8, -6.28, -4.43, -2.5, -2.68, -3.53, -3.58, -3.58, -10.68, -10.68, -10.68, -10.83, -10.83, -10.83, -10.83, -10.58, -10.96, -10.7, -11.07, -11.07, -11.16, -10.88, -11.23, -10.94, -10.65, -10.3, -10.69, -10.75, -9.84, -9.21, -8.87, -9.19, -9.8, -8.58, -7.32, -5.36, -3.83, -2.79, -2.4, -2.0, -2.4, -2.91, -3.39, -3.09, -2.17, -1.24, -0.53, -0.0, -0.0, -0.0, -0.0, -0.0, -0.0, 0.53, -0.0, -0.0, -0.0, -0.0, -0.0, -0.0, -0.0, -0.0, 0.0, 1.34, 0.63, 0.6, 0.0, 0.0, 0.0, 1.2, 1.2, 0.63, 0.6, 0.6, -0.0, -0.32, 0.0, 0.63, -0.0, -1.2, -1.54, -0.79, -3.04, -6.58, -9.68, -8.0, -3.2, -0.99, -1.11, -1.11, -0.53, -0.57, -0.57, -0.8, -2.17, -3.98, -5.69, -7.27, -6.87, -5.37, -2.23, 0.0, -0.45, -2.68, -3.53, -3.53, -10.68, -10.68, -10.68, -10.68, -10.83, -10.68, -10.68, -10.41, -10.79, -10.51, -10.7, -10.8, -11.16, -10.88, -11.23, -10.65, -10.65, -10.36, -10.72, -10.45, -10.13, -9.22, -8.22, -8.24, -8.24, -8.24, -7.61, -6.35, -5.1, -4.12, -2.84, -2.5, -2.4, -2.4, -3.39, -3.53, -3.09, -2.24, -1.26, -0.71, -0.54, -0.0, -0.0, -0.0, 0.65, 1.0, 1.0, 1.26, -0.0, -0.0, -0.0, -0.0, -0.0, -0.0, 0.0, 1.34, 0.89, -0.0, 0.0, 0.0, 0.0, 0.0, 0.0, 0.0, 0.6, 0.63, 0.0, 0.0, 0.0, 0.0, -3.13, -6.18, -3.32, -1.88, 0.0, -2.68, -6.17, -7.95, -5.6, -1.86, -0.57, -0.59, -1.13, -1.88, -2.5, -2.91, -4.02, -5.32, -6.54, -3.78, -3.79, -1.58, 0.0, 0.0, -1.2, -2.63, -3.53, -3.53, -10.55, -10.55, -10.55, -10.55, -10.68, -10.68, -10.68, -10.41, -10.79, -10.51, -10.51, -10.8, -11.16, -10.88, -10.88, -10.65, -10.65, -10.69, -10.99, -10.45, -10.47, -9.84, -8.85, -8.23, -7.61, -7.32, -7.6, -6.98, -6.35, -5.1, -4.12, -3.49, -2.84, -2.79, -3.32, -3.39, -3.39, -2.63, -1.79, -1.2, -0.6, -0.8, -0.0, -0.0, 0.54, 1.2, 1.2, 1.24, 1.24, 1.58, 0.99, -0.0, -0.0, -0.0, -0.0, 0.0, 0.89, -0.0, -0.63, -0.89, -0.6, -0.63, -0.89, -0.0, 1.2, 0.63, 0.0, 0.0, -0.0, -2.17, -5.2, -5.69, -3.91, -1.84, 0.0, 0.0, -1.58, -3.07, -2.98, -2.21, -1.49, -0.6, -1.16, -2.23, -2.79, -3.39, -4.02, -4.88, -4.43, -2.24, -0.0, 0.45, 0.0, -0.65, -1.2, -2.4, -3.13, -3.13, -10.55, -10.55, -10.55, -10.55, -10.3, -10.68, -10.68, -10.41, -10.41, -10.51, -10.51, -10.59, -10.59, -10.65, -10.65, -10.65, -10.69, -11.28, -11.03, -11.03, -10.76, -10.13, -9.49, -8.86, -8.24, -7.61, -7.6, -7.6, -6.98, -6.35, -5.1, -4.47, -4.12, -3.48, -3.43, -3.6, -3.6, -3.32, -2.4, -1.7, -1.34, -1.34, -0.63, -0.0, 0.57, 0.71, 0.71, 1.24, 1.24, 1.58, 1.26, 0.57, -0.0, -0.0, -0.0, 1.26, 1.26, 0.89, 0.0, -1.34, -1.2, -0.95, 0.0, 0.0, 0.63, -0.0, -0.0, -0.0, -0.0, -1.79, -4.11, -5.58, -3.38, -2.11, -1.23, 0.0, 0.0, -1.6, -2.23, -2.21, -3.07, -2.17, -0.65, -1.11, -2.23, -2.21, -3.09, -3.58, -2.91, -2.21, -2.15, -0.4, -1.61, -1.8, -1.84, -1.58, -2.68, -2.68, -10.55, -10.55, -10.55, -10.55, -10.3, -10.68, -10.68, -10.68, -10.41, -10.79, -10.51, -10.59, -10.59, -10.65, -10.65, -10.65, -10.69, -10.99, -11.03, -11.03, -10.76, -10.13, -9.84, -9.5, -8.87, -7.96, -7.61, -7.6, -7.3, -6.97, -6.35, -6.06, -5.72, -5.1, -4.47, -4.12, -4.07, -3.43, -3.35, -3.07, -2.15, -1.86, -1.6, -0.89, -0.0, -0.0, 0.6, 0.8, 1.26, 1.26, 1.26, 0.57, 0.71, 1.2, 0.57, 0.57, 1.0, 0.63, 0.45, 0.0, -1.34, -1.34, 0.0, 0.0, 0.0, 0.0, -0.0, -0.0, -1.26, -2.68, -4.3, -4.66, -5.06, -3.55, -1.3, 0.0, 0.0, 0.0, -1.8, -2.21, -3.07, -3.07, -0.71, -0.0, -1.58, -2.84, -3.07, -2.21, -1.84, -2.51, -3.6, -4.02, -3.16, -3.15, -2.84, -2.21, -2.49, -2.49, -10.55, -10.55, -10.55, -10.55, -10.3, -10.3, -10.68, -10.68, -10.41, -10.79, -10.51, -10.23, -10.59, -10.3, -10.65, -10.65, -10.69, -10.99, -11.03, -10.75, -10.45, -10.45, -10.13, -9.5, -9.21, -8.87, -8.24, -7.95, -7.61, -7.3, -6.97, -6.67, -6.34, -5.72, -5.1, -4.47, -4.43, -3.79, -3.78, -3.14, -2.79, -2.15, -1.86, -1.6, -0.63, 0.0, 0.0, 0.95, 0.95, 0.6, 0.6, 0.57, 0.71, 1.2, 1.61, 0.71, 0.8, 0.95, 0.63, 0.0, -0.89, -1.34, -0.63, 0.0, 0.0, 0.0, 0.0, 0.0, -1.2, -2.24, -3.39, -3.43, -5.09, -5.72, -3.79, -2.44, -1.3, -1.23, -1.88, -1.9, -2.15, -4.8, -1.6, 0.51, -1.11, -3.15, -3.79, -2.48, -1.84, -2.79, -3.6, -4.02, -3.88, -4.37, -3.78, -3.14, -3.07, -3.07, -10.55, -10.55, -10.55, -10.55, -10.3, -10.3, -10.68, -10.68, -10.68, -10.41, -10.51, -10.51, -10.59, -10.3, -10.65, -10.65, -10.69, -10.72, -10.72, -10.75, -10.75, -10.45, -9.84, -9.21, -9.21, -8.87, -8.58, -8.24, -7.61, -7.32, -6.98, -6.97, -6.67, -6.34, -5.72, -5.1, -4.47, -4.12, -4.11, -3.48, -2.84, -2.79, -2.15, -1.2, -0.63, 0.0, 0.0, 0.0, -0.0, -0.0, -0.0, 0.57, 0.71, 1.24, 1.88, 1.88, 1.26, 0.8, 0.6, -0.0, -0.0, -0.63, -0.45, -0.45, 0.0, 0.0, 0.0, 0.0, -0.0, -1.26, -2.63, -2.48, -3.69, -6.01, -8.8, -8.14, -4.66, -3.6, -2.4, -1.26, -0.99, -4.27, -3.13, -0.0, -0.0, -1.27, -1.8, -1.84, -2.5, -2.91, -2.91, -3.13, -3.98, -4.27, -4.27, -3.88, -3.6, -3.6, -10.55, -10.55, -10.55, -10.55, -10.55, -10.3, -10.3, -10.68, -10.68, -10.41, -10.41, -10.51, -10.59, -10.3, -10.65, -10.65, -10.69, -10.72, -10.72, -10.43, -10.75, -10.75, -10.13, -9.5, -9.19, -8.58, -8.58, -8.24, -7.95, -7.61, -6.98, -6.98, -6.97, -6.35, -6.34, -5.71, -5.1, -4.47, -4.12, -4.11, -3.48, -2.84, -2.53, -1.9, -1.26, 0.0, 0.0, 0.0, 0.0, -0.95, -0.0, -0.0, 0.57, 1.24, 1.9, 2.5, 2.53, 2.53, 1.24, 0.54, -0.0, -0.6, -1.2, -1.26, -0.0, 0.63, -0.0, -0.0, 0.0, -0.89, -3.53, -4.09, -2.82, -3.02, -7.08, -8.68, -5.44, -4.47, -2.63, -0.95, 0.0, -3.14, -4.3, -1.9, 1.19, 1.13, -0.0, -0.54, -0.99, -1.49, -1.7, -2.24, -3.13, -4.3, -5.02, -5.02, -4.11, -4.11, -10.16, -10.16, -10.55, -10.55, -10.55, -10.3, -10.3, -10.3, -10.68, -10.41, -10.41, -10.15, -10.23, -10.59, -10.3, -10.36, -10.69, -10.4, -10.72, -10.43, -10.43, -10.13, -9.82, -9.5, -9.19, -8.58, -8.56, -7.95, -7.33, -7.33, -7.33, -7.32, -6.98, -6.67, -6.34, -5.72, -5.71, -5.38, -4.47, -3.84, -3.78, -3.48, -2.84, -2.21, -1.58, -1.2, -1.2, -1.34, -0.63, -0.95, -0.6, -0.0, -0.0, 1.24, 1.24, 1.9, 2.21, 2.23, 1.8, 0.61, -0.0, -1.0, -1.58, -0.0, 0.63, 1.34, -0.0, -2.12, -2.54, -2.84, -4.52, -5.2, -3.15, -1.47, -2.22, -6.21, -5.94, -3.39, -2.5, -1.2, 0.0, -0.6, -3.6, -3.53, -0.0, 2.32, 2.44, 0.57, 0.59, 0.65, -0.0, -0.63, -1.79, -3.53, -5.2, -5.67, -4.77, -4.77, -10.16, -10.16, -10.16, -10.16, -10.55, -10.3, -10.3, -10.3, -10.3, -10.41, -10.41, -10.15, -10.51, -10.59, -10.3, -10.36, -10.36, -10.4, -10.4, -10.12, -9.82, -9.82, -10.12, -9.5, -9.17, -8.87, -8.24, -7.93, -6.79, -6.98, -7.61, -7.33, -7.6, -6.97, -6.06, -6.04, -5.71, -5.1, -5.08, -4.47, -3.84, -3.22, -2.86, -2.23, -1.84, -1.88, -1.86, -1.2, -0.89, -1.34, -0.63, -0.0, -0.0, 0.6, 0.8, 1.24, 1.61, 1.84, 1.76, -0.0, -0.61, -1.4, -0.54, 0.57, 2.12, 2.6, 0.89, -2.6, -4.24, -4.89, -3.72, -4.47, -3.97, -1.55, -1.5, -4.55, -5.28, -2.21, -1.2, -0.95, 0.0, 0.0, -0.6, -2.53, -1.79, -0.0, 1.12, 2.23, 2.11, 2.0, 1.84, 0.57, -0.32, -2.24, -4.88, -5.32, -4.88, -4.88, -10.16, -10.16, -10.16, -10.16, -10.16, -9.92, -10.3, -10.3, -10.3, -10.04, -10.41, -10.41, -9.94, -10.01, -10.06, -9.77, -10.09, -9.8, -9.8, -10.12, -10.12, -9.82, -9.5, -9.48, -9.17, -8.56, -7.95, -7.95, -7.61, -7.08, -7.6, -7.6, -6.98, -6.69, -6.35, -6.01, -5.72, -5.38, -5.1, -4.47, -4.12, -3.47, -3.22, -2.86, -2.23, -1.84, -1.88, -1.24, -1.26, -1.2, -0.89, 0.0, 0.0, -0.0, 0.63, 0.95, 0.6, 1.16, 0.57, -0.0, -1.73, -1.49, -0.0, 1.86, 2.4, 2.63, 2.24, 0.0, -2.86, -2.86, -1.79, -2.6, -3.58, -4.12, -4.58, -3.73, -3.48, -1.79, 0.0, 0.0, 0.0, 0.0, 0.0, 0.0, -1.13, -1.26, -0.0, 1.16, 2.0, 2.73, 2.51, 2.21, 0.6, -1.34, -3.58, -4.47, -4.47, -4.47, -10.16, -10.16, -10.16, -10.02, -10.02, -9.76, -9.76, -9.76, -10.13, -9.86, -9.86, -10.23, -9.94, -9.66, -10.06, -9.77, -9.77, -10.09, -9.8, -9.8, -9.5, -9.5, -9.5, -9.17, -8.56, -8.85, -8.24, -8.24, -8.58, -7.61, -6.98, -6.67, -6.35, -6.35, -6.35, -5.72, -5.72, -5.1, -5.1, -4.75, -4.1, -3.84, -3.22, -2.84, -2.44, -1.8, -1.8, -1.84, -1.4, -1.24, -1.26, -0.95, 0.0, 0.0, 0.0, 0.0, -0.0, -0.0, -0.0, -0.0, -1.13, -0.0, 0.8, 1.9, 1.9, 1.86, 1.86, 1.2, 0.0, -0.89, -1.24, -1.86, -3.58, -6.7, -7.63, -4.65, -1.23, 0.6, 1.61, 1.8, 0.63, 0.0, 0.0, 0.0, 0.0, -0.54, -0.59, 0.0, 1.49, 2.23, 2.84, 2.53, 1.58, -0.0, -3.13, -4.47, -4.47, -4.47, -10.02, -10.02, -10.02, -10.02, -10.02, -9.76, -9.76, -9.76, -9.76, -9.86, -9.86, -9.86, -9.94, -9.94, -9.66, -9.46, -9.48, -9.48, -9.19, -9.5, -9.5, -9.5, -9.19, -8.87, -8.85, -8.85, -8.56, -8.58, -8.59, -7.96, -6.98, -6.06, -6.34, -6.06, -6.0, -5.72, -5.72, -5.36, -5.1, -4.47, -4.47, -4.12, -3.47, -3.08, -2.84, -2.44, -1.76, -1.8, -1.6, -1.61, -1.2, -0.71, -0.6, 0.0, 0.0, 0.0, 0.0, 0.0, 0.0, 0.0, -0.0, -0.0, 0.99, 1.9, 1.0, 1.2, 0.8, 0.6, -0.0, -0.95, -2.5, -3.07, -4.15, -7.64, -7.36, -3.85, 0.0, 3.47, 3.69, 2.12, 0.0, 0.0, -0.57, -0.57, 0.0, 0.0, 0.0, 0.59, 1.2, 1.79, 2.68, 2.79, 2.15, 0.6, -2.63, -4.88, -5.36, -5.36, -9.63, -9.63, -9.63, -9.63, -10.02, -9.76, -9.76, -9.76, -9.76, -9.5, -9.86, -9.86, -9.59, -9.37, -9.42, -9.13, -9.17, -9.48, -9.19, -9.19, -9.19, -8.87, -8.58, -8.56, -8.85, -8.53, -8.56, -8.58, -8.58, -7.61, -6.98, -6.35, -6.06, -5.72, -5.72, -5.34, -5.34, -5.09, -5.1, -4.73, -4.75, -3.85, -3.47, -2.82, -2.61, -2.4, -2.2, -2.22, -1.8, -1.6, -1.61, -1.2, -0.71, -0.8, 0.0, 0.0, 0.0, 0.0, 0.0, 0.0, 0.0, 1.49, 0.99, 1.2, 0.8, 1.2, 1.0, 0.6, 0.63, 0.0, -2.12, -3.58, -3.45, -3.6, -3.69, -2.17, 0.0, 2.35, 2.11, 0.0, -0.69, -1.11, -1.16, -0.65, 0.0, 0.59, 1.11, 1.23, 1.11, 1.88, 1.79, 2.15, 1.9, 0.99, -1.49, -4.43, -6.23, -6.23, -9.63, -9.63, -9.63, -9.63, -9.63, -9.38, -9.38, -9.76, -9.76, -9.76, -9.5, -9.86, -9.37, -9.37, -9.42, -9.13, -9.17, -9.17, -8.87, -8.87, -8.87, -8.58, -8.87, -8.56, -8.24, -8.24, -8.56, -8.87, -8.24, -7.33, -6.98, -6.7, -6.35, -5.72, -5.72, -5.09, -5.09, -4.69, -4.71, -4.46, -4.47, -4.1, -3.72, -2.3, -2.18, -2.36, -2.18, -2.2, -2.22, -1.8, -1.84, -1.4, -1.2, -0.71, -0.57, 0.0, 0.0, 0.0, 0.0, 0.0, 0.0, 0.0, 0.8, 1.2, 0.8, 1.9, 0.8, 2.23, 1.6, 0.0, -1.34, -2.63, -2.54, -0.73, -1.52, -3.02, -3.15, -3.21, -3.85, -3.37, -2.4, -1.88, -0.6, 0.0, 0.99, 1.16, 1.27, 1.23, 1.76, 1.8, 1.24, 1.34, 1.58, 1.24, -0.0, -2.91, -4.77, -6.11, -9.63, -9.63, -9.63, -9.63, -9.63, -9.48, -9.21, -9.21, -9.21, -9.58, -9.3, -9.3, -9.37, -9.37, -9.08, -9.42, -8.85, -8.87, -8.58, -8.58, -8.58, -8.58, -8.24, -7.95, -8.24, -7.95, -8.24, -8.24, -7.95, -7.61, -6.98, -6.7, -6.35, -5.72, -5.72, -5.09, -5.09, -4.45, -4.45, -4.46, -4.08, -3.84, -3.85, -2.3, -2.36, -2.32, -2.8, -2.82, -2.4, -2.22, -1.8, -1.84, -1.16, -1.2, -0.71, -0.57, -0.8, 0.0, 0.0, 0.0, 0.0, 0.0, 0.0, 0.57, 0.57, 1.58, 2.8, 1.6, 1.26, 0.45, 0.0, -1.86, -2.24, -1.76, -2.34, -2.88, -4.6, -6.79, -7.46, -6.11, -3.12, -1.61, 0.0, 0.99, 1.61, 1.84, 1.11, 1.23, 1.35, 1.23, 1.13, 0.57, 0.45, -0.0, -0.0, -1.86, -3.53, -4.77, -9.63, -9.63, -9.48, -9.48, -9.48, -9.48, -9.21, -9.21, -9.21, -9.3, -9.3, -9.3, -9.02, -9.37, -9.08, -8.82, -8.85, -8.56, -8.87, -8.58, -8.24, -7.96, -8.24, -7.95, -7.95, -7.95, -8.24, -8.24, -7.33, -7.32, -6.98, -6.98, -6.63, -6.35, -5.72, -5.08, -5.09, -4.69, -4.45, -4.05, -4.05, -4.08, -4.1, -3.47, -2.2, -3.0, -3.45, -3.47, -2.84, -2.86, -2.22, -1.8, -1.6, -1.16, -1.2, -0.65, -0.71, 0.0, 0.0, 0.0, 0.0, 0.0, 0.0, 0.0, 1.2, 1.2, 0.63, 1.26, -0.0, 0.45, 0.0, -2.17, -4.02, -3.83, -3.3, -0.72, -0.73, -2.9, -5.52, -5.46, -2.44, 0.0, 1.2, 1.84, 1.8, 1.23, 1.19, 1.19, 1.19, 1.19, 0.63, 0.0, 0.0, 0.0, -0.63, -1.2, -2.68, -3.53, -9.1, -9.1, -9.1, -9.1, -9.1, -9.48, -9.21, -9.21, -9.21, -8.94, -8.94, -9.3, -9.02, -9.02, -8.82, -8.82, -8.53, -8.85, -8.24, -7.96, -7.96, -8.24, -7.95, -7.95, -7.95, -7.95, -8.24, -7.61, -7.61, -7.32, -6.98, -6.98, -6.35, -6.35, -5.98, -5.72, -5.08, -4.44, -4.69, -4.03, -4.05, -3.83, -4.08, -4.1, -4.1, -3.11, -3.45, -3.49, -2.84, -2.86, -2.44, -2.22, -1.8, -1.8, -1.33, -1.16, -1.2, -0.71, -0.71, 0.0, 0.0, 0.0, 0.0, 0.0, 0.0, -0.0, -0.0, -0.0, -0.0, 0.63, 0.45, -2.24, -4.47, -5.09, -3.49, -0.89, 0.0, -0.77, -3.15, -3.79, -1.33, 1.2, 2.48, 2.6, 1.98, 1.26, 0.67, 0.67, 0.67, 0.61, 0.61, 0.0, -0.65, -1.26, -1.2, -1.79, -2.17, -2.17, -9.1, -9.1, -9.1, -9.1, -9.1, -9.1, -8.84, -9.21, -9.21, -8.94, -8.94, -8.73, -8.78, -8.78, -8.5, -8.82, -8.53, -8.53, -8.24, -8.24, -8.24, -8.24, -7.95, -7.95, -7.95, -7.95, -7.61, -7.61, -7.61, -6.98, -6.98, -6.98, -6.35, -6.35, -6.35, -5.72, -5.72, -5.08, -4.66, -4.69, -4.03, -3.81, -4.05, -3.83, -4.05, -4.08, -3.45, -3.08, -2.84, -2.86, -2.44, -2.22, -2.22, -1.8, -1.8, -1.33, -1.2, -1.2, -0.54, -0.54, 0.0, 0.0, 0.0, 0.0, 0.0, 0.0, -0.0, -0.0, 0.63, 0.63, 0.0, -2.24, -4.47, -4.88, -4.66, -4.19, -3.69, -2.9, -3.0, -2.23, 0.0, 2.84, 3.32, 3.14, 2.06, 1.41, 0.67, 0.61, 0.0, 0.0, 0.0, 0.0, 0.0, -1.2, -2.4, -2.91, -2.91, -2.91, -9.1, -9.1, -9.1, -9.1, -9.1, -9.1, -8.84, -8.65, -8.65, -8.73, -8.73, -8.73, -8.45, -8.78, -8.78, -8.5, -8.82, -8.53, -8.24, -8.24, -8.24, -7.61, -7.61, -7.61, -7.61, -7.61, -7.61, -7.33, -7.61, -6.98, -6.7, -6.98, -6.35, -6.35, -6.35, -5.72, -5.72, -5.32, -5.08, -5.08, -4.69, -4.69, -4.03, -3.81, -3.81, -3.6, -3.42, -2.8, -2.82, -2.4, -2.44, -2.22, -2.22, -2.22, -1.8, -1.8, -1.16, -1.16, -1.2, -0.65, -0.65, 0.0, 0.0, 0.0, 0.0, 0.0, -0.0, 1.58, 0.63, 0.63, 0.0, -1.79, -4.47, -5.2, -7.28, -8.14, -6.7, -4.29, -3.12, 0.0, 4.12, 6.95, 4.73, 3.33, 1.93, 1.26, 0.67, 0.61, 0.0, 0.0, 0.0, 0.0, 0.0, -1.9, -2.91, -3.07, -3.07, -3.07, -9.1, -9.1, -9.1, -9.1, -8.93, -8.93, -8.65, -8.65, -8.65, -8.65, -8.73, -8.73, -8.45, -8.78, -8.78, -8.5, -8.5, -8.53, -8.24, -8.24, -8.24, -7.61, -7.61, -7.61, -7.61, -7.61, -7.61, -7.33, -6.98, -6.98, -6.7, -6.98, -6.35, -6.35, -6.35, -5.72, -5.72, -5.72, -5.32, -5.08, -5.08, -4.69, -4.69, -4.03, -4.03, -4.03, -3.6, -2.96, -3.0, -2.32, -2.36, -2.4, -2.44, -2.22, -2.22, -1.8, -1.84, -1.84, -1.16, -1.4, -1.2, -0.54, 0.0, 0.0, 0.0, 0.0, -0.0, 0.6, 0.63, -0.0, 0.0, -1.34, -3.53, -5.2, -5.2, -4.27, -3.16, -1.94, -1.19, 3.55, 9.27, 8.49, 5.32, 2.69, 1.26, 1.3, 1.3, 0.67, 0.0, 0.0, 0.0, 0.0, -0.61, -1.9, -2.91, -3.39, -3.39, -3.39, -9.35, -9.35, -9.1, -9.1, -8.93, -8.93, -8.65, -8.65, -8.65, -8.65, -8.38, -8.73, -8.73, -8.45, -8.78, -8.5, -8.5, -8.24, -8.24, -7.95, -7.95, -7.61, -7.61, -7.61, -7.61, -7.61, -7.33, -7.33, -6.98, -6.98, -6.7, -6.7, -6.63, -6.35, -6.35, -6.08, -5.72, -5.72, -5.72, -5.08, -5.08, -5.08, -4.69, -4.69, -4.0, -4.03, -3.56, -3.6, -2.92, -2.96, -2.29, -2.32, -2.36, -2.4, -2.2, -2.23, -2.23, -1.84, -1.84, -1.61, -1.2, -0.65, -0.71, -0.71, -0.8, 0.0, -0.0, -0.0, -0.0, -0.0, -0.89, -1.79, -2.4, -3.07, -1.9, 0.0, 0.0, 0.0, 2.2, 6.39, 8.32, 6.97, 4.01, 2.17, 1.32, 0.67, 0.59, 0.0, 0.0, 0.0, -0.87, -0.66, -1.13, -1.88, -2.8, -3.32, -3.32, -3.32, -9.35, -9.35, -9.1, -8.93, -8.55, -8.55, -8.29, -8.65, -8.65, -8.65, -8.38, -8.38, -8.73, -8.45, -8.45, -8.22, -8.22, -8.22, -8.24, -8.24, -7.95, -7.95, -7.61, -7.61, -7.61, -7.61, -7.33, -7.33, -7.26, -6.98, -6.98, -6.7, -6.98, -6.35, -6.35, -6.08, -5.72, -5.72, -5.46, -5.08, -5.08, -5.08, -4.69, -4.69, -4.44, -4.0, -4.03, -3.37, -3.4, -2.92, -2.75, -2.44, -2.29, -2.32, -2.4, -2.44, -2.22, -2.23, -2.51, -1.84, -1.88, -1.2, -1.0, -0.54, -0.71, 0.0, 0.0, 0.0, -0.0, -1.34, -1.34, -1.79, -1.34, -1.34, 0.0, 1.2, 0.54, 1.27, 4.11, 6.0, 6.07, 5.28, 3.68, 4.23, 3.44, 1.32, 0.0, 0.0, 0.0, -0.63, -0.57, -1.27, -1.27, -1.84, -2.5, -2.91, -2.91, -2.91, -8.96, -8.96, -8.72, -8.55, -8.55, -8.55, -8.29, -8.29, -8.29, -8.65, -8.38, -8.38, -8.15, -8.19, -8.19, -7.9, -8.22, -8.22, -7.93, -8.24, -7.95, -7.95, -7.61, -7.61, -7.61, -7.61, -7.61, -7.33, -7.26, -6.98, -6.98, -6.7, -6.98, -6.35, -6.35, -6.35, -6.08, -5.72, -5.72, -5.72, -5.34, -5.09, -5.09, -4.69, -4.69, -4.0, -4.03, -3.56, -3.37, -3.6, -3.4, -2.92, -2.75, -2.44, -2.32, -2.36, -2.4, -2.44, -2.48, -2.51, -2.23, -1.88, -1.2, -1.2, -1.24, 0.0, 0.0, 0.0, -0.0, -0.63, -1.2, -1.7, -1.26, -0.0, -0.0, 0.45, 0.6, 1.9, 4.0, 4.66, 3.48, 3.91, 5.3, 6.29, 4.23, 1.32, 0.0, -0.55, -0.61, 0.0, -0.63, -1.27, -1.8, -1.8, -2.53, -2.91, -2.91, -2.91, -8.96, -8.96, -8.82, -8.55, -8.55, -8.55, -8.55, -8.29, -8.08, -8.08, -8.15, -8.15, -8.15, -8.19, -8.19, -8.19, -8.22, -8.22, -7.93, -7.93, -8.24, -7.95, -7.95, -7.61, -7.61, -7.61, -7.61, -7.33, -7.61, -6.98, -6.98, -6.7, -6.98, -6.98, -6.35, -6.35, -6.08, -6.35, -6.0, -5.72, -5.34, -5.09, -5.09, -4.69, -4.69, -4.69, -4.03, -4.03, -4.05, -4.05, -3.6, -3.4, -3.4, -3.42, -2.77, -2.8, -3.04, -2.82, -2.84, -2.6, -2.23, -2.23, -1.84, -1.88, -1.24, -1.26, -0.89, -0.0, 1.0, -0.0, -0.45, -0.89, -0.99, -0.0, -0.0, 0.0, 0.89, 1.7, 2.91, 2.79, 2.23, 2.73, 5.0, 5.52, 2.7, 0.67, -1.11, -1.6, -1.11, -0.61, -0.59, -1.35, -2.0, -2.23, -2.53, -2.68, -2.68, -2.68, -8.96, -8.82, -8.82, -8.55, -8.55, -8.55, -8.55, -8.08, -8.08, -8.08, -8.15, -8.15, -8.15, -7.86, -8.19, -8.19, -7.9, -8.22, -8.22, -7.93, -7.93, -7.95, -7.95, -7.95, -7.61, -7.61, -7.33, -7.61, -7.61, -7.32, -6.98, -6.98, -6.7, -6.98, -6.35, -6.35, -6.08, -6.35, -6.0, -5.72, -5.72, -5.09, -5.09, -5.09, -4.69, -4.45, -4.45, -4.71, -4.05, -4.05, -4.05, -4.08, -4.08, -3.42, -3.42, -3.45, -3.0, -2.8, -2.82, -2.84, -2.86, -2.86, -2.51, -2.21, -1.9, -2.0, -1.79, -0.63, -0.0, -0.0, 0.0, 0.0, -0.6, -0.6, -0.0, -0.0, 0.4, 0.63, 0.89, 0.99, 1.16, 2.23, 2.79, 2.2, 0.75, 0.0, -1.11, -2.23, -2.23, -2.22, -1.88, -1.84, -2.4, -2.48, -2.51, -3.07, -3.07, -3.07, -8.82, -8.82, -8.82, -8.82, -8.55, -8.55, -8.37, -8.08, -8.08, -8.08, -8.08, -8.15, -8.15, -8.15, -8.19, -8.19, -7.9, -8.22, -8.22, -7.93, -7.93, -7.93, -7.95, -7.95, -7.95, -7.61, -7.61, -7.61, -7.61, -7.32, -6.98, -6.98, -6.7, -6.98, -6.69, -6.35, -6.35, -6.35, -6.35, -6.35, -5.72, -5.72, -5.09, -5.36, -5.36, -4.71, -4.71, -4.71, -4.71, -4.46, -4.46, -4.08, -4.08, -4.08, -4.1, -4.1, -3.45, -3.45, -3.47, -3.47, -2.84, -2.86, -2.86, -2.23, -2.5, -2.4, -1.34, -2.12, -1.86, -1.49, -0.95, 0.0, 0.0, -0.71, -0.0, -0.0, -0.0, 0.57, -0.0, 0.0, 0.57, 1.61, 1.61, 0.63, -0.69, -0.64, -1.11, -2.21, -2.68, -3.35, -2.86, -3.32, -2.88, -2.48, -2.79, -2.4, -2.4, -2.4, -8.43, -8.43, -8.43, -8.43, -8.18, -8.37, -8.37, -8.08, -8.08, -8.08, -8.08, -8.15, -8.15, -8.15, -8.19, -8.19, -7.9, -8.22, -8.22, -7.93, -7.93, -7.93, -8.24, -7.95, -7.95, -7.9, -7.61, -7.61, -7.61, -7.32, -7.32, -6.98, -6.98, -6.98, -6.98, -6.69, -6.35, -6.64, -6.35, -6.35, -6.06, -5.72, -5.72, -5.72, -5.36, -5.36, -5.1, -4.71, -4.71, -4.46, -4.73, -4.73, -4.47, -4.75, -4.1, -4.1, -4.1, -3.85, -4.12, -3.47, -3.22, -3.22, -3.15, -2.84, -2.79, -2.91, -1.79, -2.68, -3.07, -2.5, -1.61, -1.86, -1.7, -1.24, -0.95, -0.32, -0.0, -0.0, -0.0, 0.0, 0.0, 0.57, 0.53, -0.72, -0.67, -0.65, -0.59, -1.7, -2.68, -3.39, -3.78, -3.78, -3.38, -2.86, -2.5, -1.79, -1.79, -1.79, -8.43, -8.43, -8.43, -8.43, -8.18, -8.0, -8.37, -8.37, -8.08, -8.08, -8.08, -8.15, -8.15, -8.15, -8.19, -8.19, -8.19, -8.22, -8.22, -8.22, -7.93, -7.93, -8.24, -8.24, -8.24, -7.61, -7.61, -7.61, -7.61, -7.32, -7.32, -6.98, -6.98, -6.98, -6.98, -6.69, -6.69, -6.64, -6.35, -6.35, -6.06, -6.34, -6.01, -5.72, -5.72, -5.36, -5.36, -5.1, -5.1, -5.1, -4.73, -4.73, -4.47, -4.75, -4.47, -4.47, -4.75, -4.45, -4.12, -4.12, -3.47, -3.49, -3.49, -3.48, -3.43, -3.6, -3.6, -4.44, -3.13, -2.6, -1.49, -1.49, -2.24, -2.17, -1.86, -0.89, -0.0, -0.57, -0.63, -0.45, -0.45, 0.0, 0.0, 0.0, 0.0, -0.65, 0.0, -0.89, -1.79, -3.07, -3.35, -3.79, -3.43, -2.51, -1.26, -0.45, -0.45, -0.45, -8.43, -8.43, -8.43, -8.43, -8.0, -8.0, -8.37, -8.37, -8.08, -8.08, -8.44, -8.15, -8.15, -8.15, -8.19, -8.19, -8.19, -8.22, -8.22, -8.22, -7.93, -7.93, -7.93, -7.93, -7.93, -7.93, -7.61, -7.61, -7.61, -7.32, -7.6, -7.6, -6.98, -6.98, -6.98, -6.98, -6.69, -6.97, -6.97, -6.67, -6.65, -6.34, -6.34, -6.01, -5.72, -5.72, -5.36, -5.36, -5.1, -5.1, -5.38, -5.38, -5.1, -4.75, -4.75, -4.75, -4.75, -4.75, -4.45, -4.12, -4.12, -4.12, -3.49, -3.49, -3.78, -3.72, -3.88, -4.11, -3.07, -2.24, -0.89, 0.0, -0.89, -2.24, -1.79, -1.79, -1.86, -2.91, -2.63, -2.17, -1.7, -1.34, -0.57, 0.0, 0.0, 0.0, 0.0, 0.0, -1.2, -2.24, -3.2, -3.16, -2.48, -1.61, -0.6, 0.0, 0.0, 0.0, -8.43, -8.43, -8.43, -8.43, -8.0, -8.0, -8.37, -8.37, -8.08, -8.08, -8.44, -8.15, -8.15, -8.73, -8.45, -8.45, -8.45, -8.5, -8.22, -8.22, -8.22, -7.93, -7.93, -7.93, -7.93, -7.93, -7.93, -7.61, -7.61, -7.6, -7.6, -7.6, -7.6, -6.98, -6.98, -6.98, -6.69, -6.97, -6.97, -6.67, -6.95, -6.34, -6.34, -6.34, -5.72, -5.72, -5.72, -5.72, -5.36, -5.1, -5.1, -5.38, -5.1, -5.08, -5.08, -4.75, -4.75, -4.75, -4.74, -4.74, -4.12, -4.12, -4.12, -4.11, -4.07, -4.0, -4.27, -4.27, -4.6, -2.4, -1.2, 0.0, -0.45, -1.79, -1.34, -0.89, -1.34, -3.97, -4.3, -3.82, -2.91, -3.07, -2.53, -1.23, -0.7, -1.35, -0.53, 0.32, -0.0, -0.89, -2.4, -2.53, -2.23, -1.61, -0.6, 0.0, 0.0, 0.0, -8.43, -8.43, -8.43, -8.43, -8.18, -8.0, -8.37, -8.37, -8.08, -8.08, -8.65, -8.38, -8.38, -8.73, -8.73, -8.45, -8.45, -8.78, -8.5, -8.5, -8.22, -8.22, -7.93, -7.93, -7.93, -7.93, -7.93, -7.93, -8.22, -7.6, -7.6, -7.6, -7.6, -7.3, -7.3, -7.3, -6.98, -6.97, -6.97, -6.67, -6.95, -6.64, -6.34, -6.34, -6.34, -5.72, -5.72, -5.72, -5.72, -5.72, -5.72, -5.38, -5.1, -5.38, -5.08, -5.37, -5.06, -5.06, -4.74, -4.74, -4.43, -4.43, -4.12, -4.12, -4.41, -4.37, -4.0, -4.0, -4.4, -2.8, -1.86, -1.2, -1.34, -1.7, -1.26, -0.89, -1.2, -3.13, -4.3, -4.73, -4.47, -4.02, -3.6, -3.16, -2.48, -2.23, -1.58, 0.63, 1.26, 0.45, -0.63, -1.86, -1.88, -1.61, 0.0, 0.0, 0.0, 0.0, -8.43, -8.43, -8.43, -8.43, -8.18, -8.55, -8.55, -8.55, -8.29, -8.65, -8.65, -8.38, -8.38, -8.73, -8.73, -8.45, -8.45, -8.78, -8.5, -8.5, -8.5, -8.5, -8.22, -7.93, -7.93, -7.93, -7.93, -8.22, -8.22, -7.9, -7.6, -7.6, -7.6, -7.3, -7.3, -7.3, -7.59, -7.27, -6.97, -6.97, -6.95, -6.64, -6.34, -6.34, -6.34, -6.34, -5.72, -5.72, -5.72, -5.72, -6.01, -5.71, -5.1, -5.38, -5.08, -5.37, -5.37, -5.06, -5.01, -4.74, -4.71, -4.43, -4.43, -4.43, -4.37, -4.65, -4.55, -4.37, -4.55, -2.91, -3.07, -2.6, -2.24, -1.7, -1.86, -2.24, -2.17, -2.6, -3.98, -4.77, -4.88, -4.47, -4.43, -4.27, -3.16, -3.16, -2.5, -0.45, 1.2, 1.34, 0.89, -0.45, -1.86, -0.8, 0.0, 0.45, 0.45, 0.45, -8.43, -8.43, -8.43, -8.43, -8.18, -8.55, -8.55, -8.55, -8.29, -8.65, -8.65, -8.38, -8.38, -8.73, -8.73, -8.45, -8.45, -8.78, -8.78, -8.5, -8.5, -8.5, -8.5, -8.5, -8.22, -8.22, -8.22, -8.22, -8.22, -7.9, -7.9, -7.6, -7.6, -7.6, -7.3, -7.59, -7.59, -7.27, -7.27, -7.27, -6.95, -6.64, -6.92, -6.64, -6.34, -6.34, -6.04, -5.72, -5.72, -5.72, -6.01, -5.71, -5.71, -5.38, -5.08, -5.37, -5.37, -5.06, -5.06, -5.01, -5.29, -5.05, -4.74, -4.43, -4.43, -4.37, -4.65, -4.55, -4.29, -4.93, -5.09, -3.07, -2.68, -1.79, -0.89, -1.34, -2.24, -2.24, -2.91, -4.3, -4.3, -4.43, -4.44, -4.52, -4.09, -3.16, -2.79, -1.86, 0.0, 0.89, 1.34, 0.45, 0.0, 0.0, 0.89, 0.89, 0.89, 0.89, -8.43, -8.43, -8.43, -8.43, -8.55, -8.55, -8.55, -8.55, -8.29, -8.65, -8.65, -8.38, -8.38, -8.73, -8.73, -8.73, -8.45, -8.78, -8.78, -8.78, -8.5, -8.5, -8.5, -8.5, -8.22, -8.22, -8.22, -8.22, -8.22, -7.9, -7.9, -7.9, -7.9, -7.6, -7.59, -7.59, -7.59, -7.27, -7.27, -6.95, -6.95, -6.92, -6.92, -6.92, -6.92, -6.34, -6.34, -6.04, -6.01, -6.01, -6.01, -5.71, -5.71, -5.38, -5.38, -5.08, -5.37, -5.06, -5.06, -5.01, -5.01, -5.29, -5.29, -4.74, -4.74, -4.71, -4.65, -4.65, -4.65, -4.65, -4.8, -3.07, -2.68, -0.89, 0.0, 0.0, -1.34, -1.79, -2.6, -3.39, -4.3, -4.47, -4.88, -4.52, -3.78, -3.48, -3.16, -2.21, -1.24, 0.0, 0.89, 0.89, 0.89, 0.89, 0.89, 0.89, 0.89, 0.89, -8.43, -8.43, -8.43, -8.82, -8.55, -8.55, -8.55, -8.55, -8.65, -8.65, -8.65, -8.65, -8.38, -8.73, -8.73, -8.73, -8.45, -8.78, -8.78, -8.78, -8.78, -8.5, -8.5, -8.5, -8.5, -8.22, -8.22, -8.22, -8.22, -7.9, -7.9, -8.19, -8.19, -8.19, -7.59, -7.59, -7.59, -7.27, -7.55, -7.23, -6.95, -6.92, -6.92, -6.92, -6.92, -6.92, -6.64, -6.32, -6.32, -6.01, -5.71, -5.71, -5.69, -5.69, -5.38, -5.08, -5.37, -5.06, -5.06, -5.06, -5.01, -5.01, -5.29, -5.01, -5.01, -4.74, -4.71, -5.21, -5.21, -5.21, -5.08, -5.09, -3.87, -0.63, 0.0, 0.0, -0.89, -2.12, -2.6, -3.39, -4.43, -4.92, -4.88, -4.6, -4.37, -3.78, -3.16, -2.51, -1.84, -1.2, 0.0, 0.0, 0.89, 0.89, 0.89, 0.89, 0.89, 0.89, -8.43, -8.43, -8.43, -8.82, -8.55, -8.55, -8.55, -8.55, -8.65, -8.65, -8.65, -8.65, -8.38, -8.73, -8.73, -8.73, -8.45, -8.78, -8.78, -8.78, -8.78, -8.5, -8.5, -8.5, -8.5, -8.22, -8.22, -8.22, -8.22, -7.9, -7.9, -8.19, -8.19, -8.19, -7.59, -7.59, -7.59, -7.27, -7.55, -7.23, -6.95, -6.92, -6.92, -6.92, -6.92, -6.92, -6.64, -6.32, -6.32, -6.01, -5.71, -5.71, -5.69, -5.69, -5.38, -5.08, -5.37, -5.06, -5.06, -5.06, -5.01, -5.01, -5.29, -5.01, -5.01, -4.74, -4.71, -5.21, -5.21, -5.21, -5.08, -5.09, -3.87, -0.63, 0.0, 0.0, -1.7, -2.12, -2.6, -3.39, -4.43, -4.92, -4.88, -5.2, -4.66, -4.12, -3.48, -2.86, -2.48, -1.8, -1.33, -0.65, 0.0, 0.0, 0.6, 0.6, 0.6, 0.6]}]